GW6444 Weather Reports


time (UTC)temp
F
wind
direction
speed
knots
gust
knots
rain 1hr
in
rain 24hr
in
rain mn
in
humidity
%
barometer
mb
20260505195143 40 310 2.6 6.1 0.00 0.24 0.13 85 1012.1
20260505195022 40 277 1.7 6.1 0.00 0.24 0.13 85 1012.1
20260505194922 40 269 1.7 6.1 0.00 0.24 0.13 85 1012.0
20260505194838 40 302 0.9 5.2 0.00 0.24 0.13 86 1012.1
20260505194730 40 16 0.9 5.2 0.00 0.24 0.13 86 1012.1
20260505194638 40 306 1.7 5.2 0.00 0.24 0.13 86 1012.1
20260505194634 40 305 2.6 5.2 0.00 0.24 0.13 86 1012.1
20260505194436 40 311 1.7 5.2 0.00 0.24 0.13 86 1012.2
20260505194343 40 11 0.9 5.2 0.00 0.24 0.13 86 1012.2
20260505194219 40 339 0.9 5.2 0.00 0.24 0.13 85 1012.1
20260505194124 40 28 0.9 5.2 0.00 0.24 0.13 85 1012.1
20260505194024 40 311 0.9 5.2 0.00 0.24 0.13 85 1012.1
20260505193936 40 351 1.7 5.2 0.00 0.24 0.13 85 1012.1
20260505193843 40 299 3.5 7.0 0.00 0.24 0.13 85 1012.1
20260505193734 40 318 2.6 7.0 0.00 0.24 0.13 85 1012.0
20260505193644 40 28 2.6 7.0 0.00 0.24 0.13 85 1012.1
20260505193523 40 15 3.5 7.0 0.00 0.24 0.13 85 1012.0
20260505193424 40 5 2.6 7.0 0.01 0.24 0.13 87 1012.0
20260505193341 40 13 1.7 7.0 0.01 0.24 0.13 87 1012.1
20260505193227 40 328 1.7 7.0 0.01 0.24 0.13 87 1011.9
20260505193154 40 350 2.6 7.0 0.01 0.24 0.13 87 1012.0
20260505193137 40 19 2.6 7.0 0.01 0.24 0.13 87 1012.0
20260505192937 40 13 1.7 4.3 0.01 0.24 0.13 87 1011.9
20260505192820 40 306 1.7 4.3 0.01 0.24 0.13 88 1012.0
20260505192735 40 336 1.7 4.3 0.01 0.24 0.13 87 1012.1
20260505192645 39 25 1.7 4.3 0.01 0.24 0.13 87 1012.1
20260505192522 39 322 1.7 4.3 0.01 0.24 0.13 88 1012.1
20260505192437 39 350 0.9 4.3 0.01 0.24 0.13 88 1012.1
20260505192317 39 333 0.9 4.3 0.01 0.24 0.13 87 1012.1
20260505192222 39 313 1.7 4.3 0.01 0.24 0.13 87 1012.1
20260505192123 39 317 1.7 5.2 0.01 0.24 0.13 87 1012.1
20260505192040 39 342 1.7 5.2 0.01 0.24 0.13 87 1012.2
20260505191916 39 360 1.7 5.2 0.01 0.24 0.13 87 1012.3
20260505191819 39 336 1.7 5.2 0.01 0.24 0.13 87 1012.3
20260505191743 39 329 1.7 5.2 0.01 0.24 0.13 87 1012.3
20260505191647 39 351 1.7 5.2 0.01 0.24 0.13 87 1012.3
20260505191620 39 333 1.7 5.2 0.01 0.24 0.13 87 1012.3
20260505191434 39 350 1.7 5.2 0.01 0.24 0.13 86 1012.1
20260505191330 39 11 2.6 5.2 0.01 0.24 0.13 86 1012.2
20260505191241 39 5 2.6 5.2 0.01 0.24 0.13 87 1012.3
20260505191129 39 11 2.6 5.2 0.01 0.24 0.13 87 1012.2
20260505191041 39 360 2.6 5.2 0.01 0.24 0.13 87 1012.3
20260505190934 39 11 2.6 5.2 0.01 0.24 0.13 87 1012.3
20260505190819 39 10 2.6 5.2 0.01 0.24 0.13 87 1012.2
20260505190744 39 342 1.7 5.2 0.01 0.24 0.13 87 1012.4
20260505190643 39 12 1.7 4.3 0.01 0.24 0.13 87 1012.4
20260505190534 39 344 1.7 4.3 0.01 0.24 0.13 87 1012.5
20260505190426 39 5 0.9 3.5 0.01 0.24 0.13 88 1012.5
20260505190330 39 11 0.0 2.6 0.01 0.24 0.13 88 1012.5
20260505190217 39 11 0.0 2.6 0.01 0.24 0.13 87 1012.6
20260505190210 39 11 0.0 2.6 0.01 0.24 0.13 87 1012.5
20260505190148 39 11 0.0 2.6 0.01 0.24 0.13 87 1012.6
20260505185921 39 13 0.9 3.5 0.01 0.24 0.13 87 1012.6
20260505185840 39 13 0.9 3.5 0.01 0.24 0.13 87 1012.6
20260505185741 39 5 0.9 3.5 0.01 0.24 0.13 87 1012.6
20260505185635 39 360 0.9 3.5 0.01 0.24 0.13 87 1012.6
20260505185531 39 5 0.0 3.5 0.01 0.24 0.13 88 1012.7
20260505185432 39 313 0.9 3.5 0.01 0.24 0.13 87 1012.6
20260505185343 39 311 0.9 3.5 0.01 0.24 0.13 87 1012.7
20260505185233 39 355 1.7 3.5 0.01 0.24 0.13 87 1012.6
20260505185121 39 352 0.9 3.5 0.01 0.24 0.13 88 1012.6
20260505185033 39 25 0.9 3.5 0.01 0.24 0.13 88 1012.7
20260505184943 39 5 0.0 3.5 0.01 0.24 0.13 88 1012.7
20260505184826 39 348 0.9 3.5 0.01 0.24 0.13 87 1012.7
20260505184741 39 346 1.7 3.5 0.01 0.24 0.13 87 1012.8
20260505184651 39 10 1.7 3.5 0.01 0.24 0.13 87 1012.8
20260505184647 39 5 1.7 3.5 0.01 0.24 0.13 87 1012.8
20260505184438 39 16 0.9 3.5 0.01 0.24 0.13 87 1012.8
20260505184323 39 355 0.9 3.5 0.01 0.24 0.13 87 1012.8
20260505184245 39 333 0.9 3.5 0.01 0.24 0.13 87 1012.8
20260505184132 39 341 0.9 3.5 0.01 0.24 0.13 86 1012.9
20260505184039 39 355 0.9 5.2 0.01 0.24 0.13 86 1012.9
20260505183922 39 350 0.9 5.2 0.01 0.24 0.13 86 1012.9
20260505183832 39 342 1.7 5.2 0.01 0.24 0.13 87 1013.0
20260505183739 39 11 1.7 5.2 0.01 0.24 0.13 87 1013.0
20260505183624 39 16 0.9 5.2 0.01 0.24 0.13 88 1013.0
20260505183524 39 316 0.9 5.2 0.00 0.22 0.12 87 1013.1
20260505183422 39 294 0.9 5.2 0.00 0.22 0.12 87 1013.0
20260505183330 39 325 1.7 5.2 0.00 0.22 0.12 87 1013.1
20260505183230 39 304 1.7 6.1 0.00 0.22 0.12 88 1013.0
20260505183143 39 284 1.7 6.1 0.00 0.22 0.12 88 1013.1
20260505183129 39 335 1.7 6.1 0.00 0.22 0.12 88 1013.0
20260505182938 39 328 1.7 6.1 0.00 0.22 0.12 88 1013.1
20260505182836 39 319 1.7 6.1 0.00 0.22 0.12 88 1013.1
20260505182730 39 267 1.7 6.1 0.00 0.22 0.12 88 1013.1
20260505182617 39 258 2.6 7.0 0.00 0.22 0.12 88 1013.1
20260505182525 39 248 3.5 7.0 0.00 0.22 0.12 88 1013.0
20260505182440 39 233 2.6 7.0 0.00 0.22 0.12 88 1013.1
20260505182343 39 257 2.6 7.0 0.00 0.22 0.12 88 1013.1
20260505182217 39 338 2.6 7.0 0.00 0.22 0.12 88 1013.1
20260505182141 39 270 1.7 7.0 0.00 0.22 0.12 88 1013.1
20260505182023 39 240 1.7 7.0 0.00 0.22 0.12 88 1013.1
20260505181916 39 306 2.6 7.0 0.00 0.22 0.12 88 1013.1
20260505181841 39 328 2.6 7.0 0.00 0.22 0.12 88 1013.1
20260505181732 39 266 1.7 7.0 0.00 0.22 0.12 89 1013.0
20260505181646 39 277 1.7 7.0 0.00 0.22 0.12 89 1013.0
20260505181624 39 301 2.6 7.0 0.00 0.22 0.12 89 1013.1
20260505181435 39 329 2.6 7.0 0.00 0.22 0.12 88 1013.1
20260505181341 39 321 1.7 7.0 0.00 0.22 0.12 88 1013.1
20260505181230 39 355 2.6 7.0 0.00 0.22 0.12 88 1013.2
20260505181138 39 305 4.3 7.0 0.00 0.22 0.12 88 1013.2
20260505181046 39 323 3.5 7.0 0.00 0.22 0.12 89 1013.1
20260505180941 39 315 1.7 4.3 0.00 0.22 0.12 89 1013.2
20260505180838 39 320 0.9 5.2 0.00 0.22 0.12 89 1013.2
20260505180736 39 309 0.9 5.2 0.00 0.22 0.12 89 1013.2
20260505180617 39 283 1.7 5.2 0.00 0.22 0.12 89 1013.2
20260505180533 39 306 0.9 5.2 0.00 0.22 0.12 89 1013.3
20260505180433 39 295 0.9 7.0 0.00 0.22 0.12 89 1013.3
20260505180319 39 274 0.9 7.0 0.00 0.22 0.12 89 1013.2
20260505180217 39 271 2.6 7.0 0.00 0.22 0.12 89 1013.3
20260505180210 39 274 2.6 7.0 0.00 0.22 0.12 89 1013.3
20260505180156 39 329 2.6 7.0 0.00 0.22 0.12 89 1013.3
20260505175934 39 295 2.6 7.0 0.00 0.22 0.12 89 1013.4
20260505175818 39 297 2.6 7.0 0.00 0.22 0.12 89 1013.4
20260505175720 39 286 3.5 7.0 0.00 0.22 0.12 89 1013.4
20260505175644 39 259 3.5 7.0 0.00 0.22 0.12 89 1013.4
20260505175529 39 294 2.6 6.1 0.00 0.22 0.12 90 1013.5
20260505175443 39 278 1.7 6.1 0.00 0.22 0.12 89 1013.5
20260505175320 38 281 2.6 6.1 0.00 0.22 0.12 89 1013.5
20260505175216 38 259 2.6 6.1 0.00 0.22 0.12 89 1013.4
20260505175141 38 285 2.6 6.1 0.00 0.22 0.12 89 1013.5
20260505175037 38 273 2.6 7.8 0.00 0.22 0.12 89 1013.4
20260505174942 38 255 3.5 8.7 0.00 0.22 0.12 89 1013.4
20260505174834 38 233 3.5 8.7 0.00 0.22 0.12 89 1013.3
20260505174735 38 292 3.5 8.7 0.00 0.22 0.12 90 1013.5
20260505174651 38 253 3.5 8.7 0.00 0.22 0.12 89 1013.4
20260505174633 38 247 3.5 8.7 0.00 0.22 0.12 89 1013.4
20260505174418 38 286 4.3 8.7 0.00 0.22 0.12 89 1013.5
20260505174320 38 284 5.2 8.7 0.00 0.22 0.12 89 1013.4
20260505174240 38 288 5.2 8.7 0.00 0.22 0.12 88 1013.5
20260505174143 38 265 4.3 7.8 0.00 0.22 0.12 89 1013.4
20260505174033 38 285 3.5 7.8 0.00 0.22 0.12 89 1013.5
20260505173918 38 280 3.5 7.8 0.00 0.22 0.12 89 1013.5
20260505173819 38 250 4.3 7.8 0.00 0.22 0.12 89 1013.6
20260505173731 38 264 4.3 7.8 0.00 0.22 0.12 89 1013.5
20260505173623 38 258 4.3 7.8 0.00 0.22 0.12 89 1013.5
20260505173534 38 271 4.3 7.0 0.00 0.22 0.12 89 1013.5
20260505173439 38 318 4.3 7.0 0.00 0.22 0.12 89 1013.4
20260505173328 38 277 3.5 7.0 0.00 0.22 0.12 89 1013.5
20260505173227 38 230 3.5 7.0 0.00 0.22 0.12 89 1013.5
20260505173146 38 255 4.3 7.0 0.00 0.22 0.12 89 1013.5
20260505173143 38 272 3.5 7.0 0.00 0.22 0.12 89 1013.5
20260505172934 38 279 4.3 7.8 0.00 0.22 0.12 89 1013.5
20260505172843 38 261 4.3 7.8 0.00 0.22 0.12 89 1013.5
20260505172718 38 283 3.5 7.8 0.00 0.22 0.12 89 1013.4
20260505172620 38 252 2.6 7.8 0.00 0.22 0.12 89 1013.5
20260505172530 38 247 2.6 7.8 0.00 0.22 0.12 89 1013.5
20260505172430 38 215 2.6 7.8 0.00 0.22 0.12 89 1013.5
20260505172342 38 238 4.3 7.8 0.00 0.22 0.12 89 1013.5
20260505172234 38 295 5.2 7.8 0.00 0.22 0.12 89 1013.5
20260505172132 38 229 4.3 7.8 0.01 0.22 0.12 89 1013.5
20260505172024 38 286 2.6 7.0 0.01 0.22 0.12 88 1013.5
20260505171922 38 293 3.5 7.0 0.01 0.22 0.12 88 1013.7
20260505171826 38 263 3.5 7.8 0.01 0.22 0.12 88 1013.6
20260505171718 38 299 3.5 7.8 0.01 0.22 0.12 88 1013.6
20260505171656 38 253 3.5 7.8 0.01 0.22 0.12 88 1013.6
20260505171643 38 281 3.5 7.8 0.01 0.22 0.12 88 1013.6
20260505171430 38 290 3.5 7.8 0.01 0.22 0.12 88 1013.6
20260505171325 38 275 4.3 7.8 0.01 0.22 0.12 88 1013.6
20260505171239 38 284 5.2 7.8 0.01 0.22 0.12 88 1013.7
20260505171118 38 288 5.2 7.8 0.01 0.22 0.12 88 1013.6
20260505171040 38 271 4.3 7.0 0.01 0.22 0.12 88 1013.6
20260505170917 38 241 4.3 7.0 0.01 0.22 0.12 88 1013.6
20260505170838 38 275 4.3 7.8 0.01 0.22 0.12 88 1013.6
20260505170741 38 275 4.3 7.8 0.01 0.22 0.12 88 1013.7
20260505170629 38 273 5.2 7.8 0.01 0.22 0.12 88 1013.7
20260505170525 38 298 4.3 7.8 0.01 0.22 0.12 88 1013.7
20260505170442 38 276 3.5 7.8 0.01 0.22 0.12 88 1013.7
20260505170326 38 304 3.5 7.8 0.01 0.22 0.12 88 1013.7
20260505170227 38 255 3.5 7.8 0.01 0.22 0.12 88 1013.6
20260505170204 38 272 3.5 7.8 0.01 0.22 0.12 87 1013.6
20260505170155 38 273 4.3 7.8 0.01 0.22 0.12 87 1013.6
20260505165925 38 317 4.3 7.8 0.01 0.22 0.12 87 1013.7
20260505165827 38 279 4.3 7.8 0.01 0.22 0.12 87 1013.7
20260505165721 38 278 4.3 7.8 0.01 0.22 0.12 87 1013.7
20260505165632 38 281 5.2 7.8 0.01 0.22 0.12 88 1013.7
20260505165533 38 257 3.5 7.8 0.01 0.22 0.12 89 1013.6
20260505165419 38 247 2.6 7.8 0.01 0.22 0.12 89 1013.7
20260505165332 38 283 2.6 7.8 0.01 0.22 0.12 88 1013.7
20260505165221 38 278 1.7 7.8 0.01 0.22 0.12 88 1013.9
20260505165122 38 278 2.6 7.8 0.01 0.22 0.12 88 1013.8
20260505165032 38 288 5.2 7.8 0.01 0.22 0.12 87 1013.8
20260505164919 38 274 4.3 7.8 0.01 0.22 0.12 87 1013.7
20260505164817 38 268 3.5 7.0 0.01 0.22 0.12 88 1013.8
20260505164732 38 281 3.5 6.1 0.01 0.22 0.12 88 1013.8
20260505164647 38 272 3.5 6.1 0.01 0.22 0.12 89 1013.9
20260505164617 38 318 2.6 7.0 0.01 0.22 0.12 88 1013.9
20260505164434 38 268 2.6 7.0 0.01 0.22 0.12 89 1013.9
20260505164331 38 289 3.5 7.0 0.01 0.22 0.12 88 1014.0
20260505164227 38 248 3.5 7.0 0.01 0.22 0.12 88 1013.9
20260505164134 38 286 2.6 7.0 0.01 0.22 0.12 88 1013.9
20260505164032 38 254 2.6 7.0 0.01 0.22 0.12 88 1013.9
20260505163941 38 293 2.6 7.0 0.01 0.22 0.12 88 1013.9
20260505163834 38 283 3.5 7.0 0.01 0.22 0.12 88 1013.9
20260505163744 38 258 4.3 7.0 0.01 0.22 0.12 88 1013.9
20260505163627 38 244 3.5 6.1 0.01 0.22 0.12 89 1013.9
20260505163515 38 284 2.6 6.1 0.01 0.22 0.12 89 1013.9
20260505163434 38 250 2.6 6.1 0.01 0.22 0.12 89 1013.9
20260505163332 38 289 2.6 6.1 0.01 0.22 0.12 89 1013.9
20260505163226 38 290 1.7 6.1 0.01 0.22 0.12 89 1013.9
20260505163141 38 238 2.6 6.1 0.01 0.22 0.12 88 1014.0
20260505163136 38 255 3.5 7.0 0.01 0.22 0.12 88 1013.9
20260505162944 38 257 2.6 7.0 0.01 0.22 0.12 89 1013.9
20260505162836 38 268 2.6 7.0 0.01 0.22 0.12 89 1013.9
20260505162720 38 269 3.5 7.0 0.01 0.22 0.12 89 1014.0
20260505162637 37 292 2.6 7.0 0.01 0.22 0.12 89 1013.9
20260505162518 38 314 2.6 7.0 0.01 0.22 0.12 89 1013.9
20260505162431 37 326 2.6 7.0 0.01 0.22 0.12 89 1013.9
20260505162325 37 313 1.7 6.1 0.01 0.22 0.12 89 1013.9
20260505162238 37 254 2.6 6.1 0.00 0.22 0.11 89 1013.9
20260505162117 37 279 1.7 6.1 0.00 0.22 0.11 89 1014.0
20260505162030 37 298 2.6 6.1 0.00 0.22 0.11 89 1013.9
20260505161931 37 274 3.5 6.1 0.00 0.22 0.11 89 1014.0
20260505161843 37 293 2.6 6.1 0.00 0.22 0.11 89 1014.0
20260505161727 37 293 2.6 7.0 0.00 0.22 0.11 89 1013.9
20260505161649 37 275 2.6 7.0 0.00 0.22 0.11 89 1014.0
20260505161636 37 253 2.6 7.0 0.00 0.22 0.11 89 1014.0
20260505161437 37 305 2.6 7.0 0.00 0.22 0.11 88 1014.0
20260505161322 37 302 3.5 7.0 0.00 0.22 0.11 88 1014.1
20260505161243 37 279 3.5 7.0 0.00 0.22 0.11 89 1014.1
20260505161136 37 269 3.5 7.0 0.00 0.22 0.11 89 1014.1
20260505161032 37 246 3.5 7.0 0.00 0.22 0.11 89 1014.1
20260505160933 37 286 3.5 7.0 0.00 0.22 0.11 89 1014.1
20260505160827 37 286 3.5 7.0 0.00 0.22 0.11 89 1014.0
20260505160738 37 273 3.5 7.0 0.00 0.22 0.11 89 1014.0
20260505160623 37 291 3.5 7.0 0.00 0.22 0.11 89 1014.0
20260505160543 37 271 3.5 7.0 0.00 0.22 0.11 89 1014.0
20260505160424 37 275 4.3 7.0 0.00 0.22 0.11 89 1014.0
20260505160344 37 242 4.3 7.0 0.00 0.22 0.11 90 1014.0
20260505160216 37 279 3.5 6.1 0.00 0.22 0.11 89 1014.0
20260505160210 37 292 2.6 6.1 0.00 0.22 0.11 89 1014.0
20260505160119 37 272 2.6 7.0 0.00 0.22 0.11 89 1014.0
20260505153343 37 297 3.5 6.1 0.00 0.22 0.11 89 1014.1
20260505153231 37 290 2.6 6.1 0.00 0.22 0.11 89 1014.2
20260505153143 37 275 2.6 7.0 0.00 0.22 0.11 89 1014.2
20260505153133 37 270 3.5 7.0 0.00 0.22 0.11 89 1014.1
20260505152919 37 291 3.5 7.0 0.00 0.22 0.11 89 1014.2
20260505152839 37 292 2.6 7.0 0.00 0.22 0.11 90 1014.1
20260505152723 37 297 2.6 7.0 0.00 0.22 0.11 90 1014.1
20260505152626 37 281 1.7 7.0 0.00 0.22 0.11 90 1014.2
20260505152544 37 257 1.7 7.0 0.00 0.22 0.11 90 1014.1
20260505152441 37 190 1.7 7.0 0.00 0.22 0.11 89 1014.2
20260505152323 37 307 1.7 7.0 0.00 0.22 0.11 89 1014.2
20260505152236 37 268 0.9 4.3 0.00 0.22 0.11 89 1014.2
20260505152129 37 236 1.7 5.2 0.00 0.22 0.11 89 1014.2
20260505152027 37 262 2.6 5.2 0.00 0.22 0.11 89 1014.2
20260505151917 37 256 2.6 5.2 0.00 0.22 0.11 90 1014.2
20260505151840 37 289 2.6 5.2 0.00 0.22 0.11 90 1014.1
20260505151740 37 301 1.7 5.2 0.00 0.22 0.11 90 1014.2
20260505151654 37 290 1.7 5.2 0.00 0.22 0.11 89 1014.2
20260505151639 37 281 2.6 5.2 0.00 0.22 0.11 89 1014.1
20260505151435 37 318 3.5 5.2 0.00 0.22 0.11 89 1014.2
20260505151343 37 298 4.3 6.1 0.00 0.22 0.11 89 1014.1
20260505151219 37 313 4.3 6.1 0.00 0.22 0.11 89 1014.2
20260505151133 37 292 2.6 6.1 0.00 0.22 0.11 89 1014.2
20260505151023 37 289 1.7 6.1 0.00 0.22 0.11 90 1014.2
20260505150933 37 299 1.7 6.1 0.00 0.22 0.11 90 1014.1
20260505150841 37 240 1.7 6.1 0.00 0.22 0.11 90 1014.2
20260505150740 37 279 1.7 6.1 0.00 0.22 0.11 90 1014.1
20260505150637 37 294 2.6 6.1 0.01 0.22 0.11 90 1014.2
20260505150537 37 285 3.5 6.1 0.01 0.22 0.11 90 1014.1
20260505150424 37 273 2.6 6.1 0.01 0.22 0.11 90 1014.2
20260505150337 37 275 2.6 6.1 0.01 0.22 0.11 90 1014.2
20260505150219 37 300 2.6 6.1 0.01 0.22 0.11 90 1014.1
20260505150211 37 279 1.7 6.1 0.01 0.22 0.11 90 1014.2
20260505150143 37 299 0.9 5.2 0.01 0.22 0.11 90 1014.1
20260505140629 36 275 4.3 8.7 0.00 0.21 0.09 89 1014.5
20260505140526 36 281 4.3 8.7 0.00 0.21 0.09 89 1014.6
20260505140443 36 283 5.2 8.7 0.00 0.21 0.09 89 1014.5
20260505140339 36 271 5.2 8.7 0.00 0.21 0.09 90 1014.5
20260505140225 36 299 4.3 8.7 0.00 0.21 0.09 90 1014.5
20260505140201 36 225 4.3 8.7 0.00 0.21 0.09 89 1014.6
20260505140149 37 239 5.2 8.7 0.00 0.21 0.09 90 1014.4
20260505130230 37 311 3.5 9.6 0.00 0.21 0.09 89 1013.9
20260505130202 37 202 6.1 9.6 0.00 0.21 0.09 88 1013.9
20260505130148 37 227 6.1 10.4 0.00 0.21 0.09 89 1013.9
20260505125024 37 281 4.3 7.8 0.00 0.21 0.09 89 1013.3
20260505124939 37 253 5.2 8.7 0.00 0.21 0.09 89 1013.3
20260505124837 37 251 5.2 8.7 0.01 0.21 0.09 89 1013.2
20260505124742 37 267 4.3 8.7 0.01 0.21 0.09 89 1013.2
20260505124648 37 221 3.5 8.7 0.01 0.21 0.09 89 1013.2
20260505124642 37 193 4.3 8.7 0.01 0.21 0.09 89 1013.2
20260505124432 37 240 4.3 8.7 0.01 0.21 0.09 89 1013.3
20260505124341 37 181 5.2 8.7 0.01 0.21 0.09 89 1013.3
20260505124238 37 232 4.3 8.7 0.01 0.21 0.09 89 1013.2
20260505124124 37 209 3.5 10.4 0.01 0.21 0.09 89 1013.2
20260505124039 37 294 4.3 10.4 0.01 0.21 0.09 89 1013.2
20260505123931 37 250 5.2 10.4 0.01 0.21 0.09 89 1013.2
20260505123824 37 251 6.1 12.2 0.01 0.21 0.09 89 1013.2
20260505123725 37 234 7.0 13.0 0.01 0.21 0.09 89 1013.0
20260505123645 37 267 5.2 13.0 0.01 0.21 0.09 89 1013.0
20260505123531 37 289 4.3 13.0 0.01 0.21 0.09 89 1013.0
20260505123440 37 196 5.2 13.0 0.02 0.21 0.09 89 1013.1
20260505123328 37 277 6.1 13.0 0.02 0.21 0.09 88 1013.1
20260505123241 37 247 5.2 13.0 0.02 0.21 0.09 88 1013.1
20260505123147 37 269 7.8 13.0 0.02 0.21 0.09 88 1013.0
20260505123132 37 281 9.6 13.0 0.02 0.21 0.09 88 1013.0
20260505122941 37 281 7.8 13.0 0.02 0.21 0.09 88 1013.1
20260505122837 37 269 5.2 12.2 0.03 0.21 0.09 88 1013.2
20260505122728 37 246 5.2 12.2 0.03 0.21 0.09 88 1013.1
20260505122629 37 290 6.1 12.2 0.03 0.21 0.09 88 1013.0
20260505122536 37 250 5.2 10.4 0.03 0.21 0.09 88 1013.1
20260505122440 37 187 6.1 10.4 0.04 0.21 0.09 87 1013.0
20260505122342 37 261 7.0 10.4 0.04 0.21 0.09 87 1013.0
20260505122247 37 200 6.1 10.4 0.04 0.21 0.09 88 1013.0
20260505122141 37 242 7.0 10.4 0.04 0.21 0.09 87 1013.0
20260505122019 38 252 5.2 9.6 0.04 0.21 0.09 88 1013.0
20260505121929 38 215 3.5 10.4 0.04 0.21 0.09 88 1013.1
20260505121834 38 286 4.3 10.4 0.04 0.21 0.09 88 1013.0
20260505121724 38 201 3.5 10.4 0.04 0.21 0.09 88 1013.0
20260505121659 38 272 2.6 10.4 0.04 0.21 0.09 88 1013.1
20260505121657 38 202 4.3 11.3 0.04 0.21 0.09 88 1013.0
20260505121419 38 243 5.2 11.3 0.04 0.21 0.09 87 1013.0
20260505121341 38 298 5.2 11.3 0.04 0.21 0.09 87 1013.0
20260505121228 38 204 5.2 11.3 0.04 0.21 0.09 87 1013.0
20260505121144 38 254 6.1 11.3 0.04 0.21 0.09 87 1013.0
20260505121037 38 219 6.1 13.9 0.04 0.21 0.09 87 1013.0
20260505120932 38 246 6.1 14.8 0.04 0.21 0.09 87 1013.0
20260505120818 39 324 6.1 14.8 0.04 0.21 0.09 88 1013.0
20260505120733 39 232 6.1 14.8 0.04 0.21 0.09 88 1012.9
20260505120644 39 258 5.2 14.8 0.04 0.21 0.09 88 1013.0
20260505120544 39 250 5.2 14.8 0.04 0.21 0.09 88 1012.9
20260505120428 39 239 5.2 14.8 0.04 0.21 0.09 88 1012.9
20260505120343 39 296 7.8 14.8 0.04 0.21 0.09 88 1012.8
20260505120242 39 233 8.7 14.8 0.04 0.21 0.09 87 1012.8
20260505120231 39 325 7.0 13.9 0.04 0.21 0.09 88 1012.8
20260505120205 39 218 7.8 13.9 0.04 0.21 0.09 88 1012.8
20260505115923 39 248 7.8 13.9 0.04 0.21 0.09 88 1012.8
20260505115833 39 234 7.0 13.9 0.04 0.21 0.09 88 1012.8
20260505115745 39 259 6.1 13.9 0.04 0.21 0.09 88 1012.7
20260505115633 39 278 6.1 13.9 0.04 0.21 0.09 88 1012.6
20260505115531 39 286 7.0 13.9 0.04 0.21 0.09 88 1012.6
20260505115441 39 259 7.8 13.9 0.04 0.21 0.09 88 1012.6
20260505115329 39 253 8.7 13.9 0.04 0.21 0.09 88 1012.6
20260505115221 39 272 8.7 13.9 0.04 0.21 0.09 88 1012.5
20260505115133 39 257 6.1 13.9 0.04 0.21 0.09 89 1012.7
20260505115043 39 288 6.1 16.5 0.04 0.21 0.09 88 1012.7
20260505114942 39 277 6.1 16.5 0.04 0.19 0.09 88 1012.7
20260505114826 39 271 5.2 16.5 0.04 0.19 0.09 88 1012.5
20260505114725 39 261 6.1 16.5 0.04 0.19 0.09 88 1012.6
20260505114723 39 268 7.0 16.5 0.04 0.19 0.09 87 1012.5
20260505114703 39 244 7.8 16.5 0.04 0.19 0.09 87 1012.6
20260505114424 39 299 8.7 16.5 0.04 0.19 0.09 87 1012.6
20260505114325 39 265 10.4 16.5 0.04 0.19 0.09 87 1012.6
20260505114224 39 317 10.4 16.5 0.04 0.19 0.09 86 1012.5
20260505114119 39 284 8.7 15.6 0.04 0.19 0.09 87 1012.5
20260505114023 39 225 9.6 14.8 0.04 0.19 0.09 87 1012.6
20260505113918 39 248 9.6 14.8 0.04 0.19 0.09 88 1012.5
20260505113834 39 265 8.7 14.8 0.04 0.19 0.09 88 1012.5
20260505113722 39 289 8.7 14.8 0.04 0.19 0.09 87 1012.4
20260505113630 39 327 9.6 14.8 0.04 0.19 0.09 88 1012.5
20260505113519 39 267 8.7 13.9 0.03 0.19 0.08 88 1012.5
20260505113436 39 284 8.7 13.9 0.03 0.19 0.08 88 1012.5
20260505113319 39 274 7.8 13.9 0.03 0.19 0.08 88 1012.5
20260505113224 39 219 6.1 19.1 0.04 0.19 0.08 88 1012.5
20260505113216 39 255 7.0 19.1 0.04 0.19 0.08 87 1012.5
20260505113200 39 300 7.8 19.1 0.04 0.19 0.08 87 1012.5
20260505112942 40 265 7.8 19.1 0.03 0.18 0.07 87 1012.5
20260505112825 40 287 7.0 19.1 0.03 0.18 0.07 87 1012.5
20260505112729 40 263 6.1 19.1 0.03 0.18 0.07 87 1012.5
20260505112618 40 308 7.0 19.1 0.03 0.18 0.07 87 1012.4
20260505112526 40 284 9.6 19.1 0.02 0.17 0.06 87 1012.3
20260505112429 40 288 9.6 19.1 0.02 0.17 0.06 87 1012.4
20260505112331 40 299 9.6 19.1 0.02 0.17 0.06 87 1012.5
20260505112229 40 275 7.8 13.0 0.01 0.16 0.04 87 1012.4
20260505112119 40 240 8.7 13.0 0.01 0.16 0.04 87 1012.4
20260505112022 40 283 6.1 13.0 0.01 0.16 0.04 87 1012.3
20260505111922 40 277 5.2 13.0 0.01 0.16 0.04 87 1012.3
20260505111833 40 310 5.2 13.0 0.02 0.16 0.04 87 1012.3
20260505111728 40 245 4.3 13.0 0.02 0.16 0.04 87 1012.3
20260505111722 40 215 4.3 13.0 0.02 0.16 0.04 87 1012.3
20260505111659 40 243 5.2 13.0 0.02 0.16 0.04 87 1012.3
20260505111441 40 275 7.0 13.0 0.02 0.16 0.04 87 1012.4
20260505111344 40 238 6.1 13.0 0.02 0.16 0.04 86 1012.4
20260505111223 40 250 5.2 11.3 0.02 0.16 0.04 87 1012.3
20260505111137 40 280 4.3 11.3 0.02 0.16 0.04 87 1012.2
20260505111032 40 246 4.3 11.3 0.02 0.16 0.04 87 1012.3
20260505110934 40 252 6.1 16.5 0.02 0.16 0.04 86 1012.2
20260505110821 40 286 6.1 16.5 0.03 0.16 0.04 86 1012.3
20260505110726 41 224 5.2 16.5 0.03 0.16 0.04 87 1012.2
20260505110636 41 267 5.2 16.5 0.03 0.16 0.04 87 1012.2
20260505110518 40 235 5.2 16.5 0.03 0.16 0.04 86 1012.2
20260505110423 40 269 5.2 16.5 0.03 0.16 0.04 86 1012.0
20260505110341 41 224 4.3 16.5 0.03 0.16 0.04 86 1012.1
20260505110239 41 268 7.8 16.5 0.03 0.16 0.04 86 1012.1
20260505110231 40 254 10.4 16.5 0.03 0.16 0.04 85 1012.0
20260505110158 41 268 11.3 16.5 0.04 0.16 0.04 86 1011.9
20260505102131 42 268 9.6 16.5 0.04 0.14 0.04 88 1010.9
20260505102040 43 281 7.0 14.8 0.04 0.14 0.04 88 1010.9
20260505101944 43 284 6.1 14.8 0.03 0.14 0.03 89 1010.9
20260505101839 43 270 6.1 14.8 0.03 0.14 0.03 89 1010.9
20260505101732 43 295 6.1 14.8 0.03 0.14 0.03 88 1010.9
20260505101724 43 240 8.7 14.8 0.03 0.14 0.03 88 1010.9
20260505101705 43 270 9.6 14.8 0.03 0.14 0.03 88 1010.9
20260505101442 43 286 8.7 14.8 0.03 0.14 0.03 88 1010.9
20260505101332 43 281 7.0 14.8 0.03 0.14 0.03 88 1010.9
20260505101224 43 280 5.2 14.8 0.03 0.14 0.03 89 1011.0
20260505101127 43 288 5.2 9.6 0.03 0.14 0.03 89 1010.9
20260505101043 43 236 6.1 13.9 0.03 0.14 0.03 89 1011.0
20260505100929 43 165 4.3 13.9 0.02 0.13 0.02 89 1010.9
20260505100844 43 178 3.5 13.9 0.02 0.13 0.02 89 1011.0
20260505100720 43 234 4.3 13.9 0.02 0.13 0.02 89 1010.9
20260505100634 43 195 5.2 13.9 0.02 0.13 0.02 89 1010.9
20260505100531 43 202 3.5 13.9 0.02 0.13 0.02 89 1010.9
20260505100438 43 283 2.6 13.9 0.02 0.13 0.02 89 1010.9
20260505100322 43 219 3.5 13.9 0.02 0.13 0.02 89 1010.9
20260505100235 43 217 7.0 13.9 0.02 0.13 0.02 89 1010.9
20260505100221 43 279 7.8 13.9 0.01 0.12 0.01 89 1010.8
20260505100157 43 202 6.1 12.2 0.01 0.12 0.01 89 1010.7
20260505095944 43 220 7.0 12.2 0.01 0.12 0.01 89 1010.8
20260505095829 43 281 7.0 12.2 0.01 0.12 0.01 89 1010.7
20260505095745 43 248 7.8 12.2 0.01 0.12 0.01 89 1010.7
20260505095638 43 254 6.1 12.2 0.01 0.12 0.01 89 1010.7
20260505095519 43 221 3.5 9.6 0.01 0.12 0.01 89 1010.8
20260505095440 43 231 3.5 12.2 0.01 0.12 0.01 89 1010.7
20260505095317 43 205 4.3 12.2 0.01 0.12 0.01 89 1010.7
20260505095234 43 204 3.5 12.2 0.01 0.12 0.01 89 1010.7
20260505095117 43 205 3.5 12.2 0.01 0.12 0.01 89 1010.9
20260505095038 43 202 4.3 12.2 0.01 0.12 0.01 89 1010.9
20260505094921 43 227 5.2 12.2 0.01 0.12 0.01 89 1010.9
20260505094829 43 215 6.1 12.2 0.01 0.12 0.01 89 1010.9
20260505094736 43 209 5.2 12.2 0.01 0.12 0.01 89 1010.8
20260505094726 43 207 4.3 12.2 0.01 0.12 0.01 89 1010.7
20260505094703 43 186 6.1 12.2 0.01 0.12 0.01 88 1010.9
20260505094423 43 196 6.1 12.2 0.01 0.12 0.01 88 1010.9
20260505094322 43 227 5.2 12.2 0.00 0.11 0.00 88 1010.8
20260505094244 43 221 5.2 12.2 0.00 0.11 0.00 88 1010.7
20260505094144 43 255 5.2 12.2 0.00 0.11 0.00 88 1010.7
20260505094020 44 221 5.2 12.2 0.00 0.11 0.00 88 1010.6
20260505093944 44 192 5.2 10.4 0.00 0.11 0.00 88 1010.7
20260505093821 44 183 6.1 10.4 0.00 0.11 0.00 88 1010.5
20260505093739 44 234 6.1 10.4 0.00 0.11 0.00 88 1010.5
20260505093643 44 219 6.1 12.2 0.00 0.11 0.00 88 1010.5
20260505093526 44 219 6.1 12.2 0.00 0.11 0.00 88 1010.4
20260505093418 44 225 4.3 11.3 0.00 0.11 0.00 88 1010.7
20260505093318 44 173 3.5 11.3 0.00 0.11 0.00 88 1010.6
20260505093219 44 249 3.5 11.3 0.00 0.11 0.00 88 1010.5
20260505093215 44 287 3.5 11.3 0.00 0.11 0.00 88 1010.6
20260505093156 44 217 4.3 14.8 0.00 0.11 0.00 88 1010.5
20260505092941 44 196 5.2 14.8 0.00 0.11 0.00 87 1010.6
20260505092823 44 171 5.2 14.8 0.00 0.11 0.00 87 1010.6
20260505092743 44 201 6.1 14.8 0.00 0.11 0.00 87 1010.6
20260505092616 44 178 5.2 14.8 0.00 0.11 0.00 87 1010.5
20260505092540 44 234 4.3 14.8 0.00 0.11 0.00 87 1010.5
20260505092419 44 267 5.2 14.8 0.00 0.11 0.00 87 1010.6
20260505092330 44 259 7.0 14.8 0.00 0.11 0.00 87 1010.6
20260505092240 44 188 7.0 15.6 0.00 0.11 0.00 87 1010.6
20260505092144 44 195 4.3 12.2 0.00 0.11 0.00 87 1010.7
20260505092038 44 217 5.2 12.2 0.00 0.11 0.00 87 1010.7
20260505091930 44 279 7.8 12.2 0.00 0.11 0.00 87 1010.7
20260505091822 44 217 8.7 12.2 0.00 0.11 0.00 87 1010.7
20260505091758 44 273 7.8 12.2 0.00 0.11 0.00 86 1010.6
20260505091748 44 281 6.1 12.2 0.00 0.11 0.00 86 1010.5
20260505091741 45 276 6.1 12.2 0.00 0.11 0.00 87 1010.5
20260505091415 45 275 4.3 12.2 0.00 0.11 0.00 86 1010.5
20260505091322 45 272 4.3 8.7 0.00 0.11 0.00 86 1010.5
20260505091230 45 213 5.2 8.7 0.00 0.11 0.00 86 1010.4
20260505091144 45 198 4.3 8.7 0.00 0.11 0.00 86 1010.4
20260505091021 45 198 4.3 8.7 0.00 0.11 0.00 86 1010.4
20260505090930 45 211 3.5 9.6 0.00 0.11 0.00 86 1010.4
20260505090826 45 194 2.6 9.6 0.00 0.11 0.00 86 1010.3
20260505090726 45 161 3.5 9.6 0.00 0.11 0.00 86 1010.4
20260505090621 45 215 3.5 9.6 0.00 0.11 0.00 85 1010.4
20260505090531 46 210 5.2 9.6 0.00 0.11 0.00 84 1010.4
20260505090428 46 205 5.2 9.6 0.00 0.11 0.00 84 1010.4
20260505090331 46 222 4.3 8.7 0.00 0.11 0.00 84 1010.4
20260505090234 46 287 5.2 9.6 0.00 0.11 0.00 85 1010.4
20260505090226 46 257 4.3 10.4 0.00 0.11 0.00 85 1010.3
20260505090207 47 198 4.3 10.4 0.00 0.11 0.00 85 1010.2
20260505085926 47 195 5.2 10.4 0.00 0.11 0.00 85 1010.2
20260505085818 47 267 5.2 10.4 0.00 0.11 0.00 85 1010.1
20260505085730 47 252 4.3 10.4 0.00 0.11 0.00 84 1010.1
20260505085646 47 218 4.3 10.4 0.00 0.11 0.00 84 1010.1
20260505085529 48 188 6.1 10.4 0.00 0.11 0.00 83 1010.0
20260505085433 48 190 7.0 10.4 0.00 0.11 0.00 84 1010.1
20260505085333 49 229 6.1 11.3 0.00 0.11 0.00 85 1010.0
20260505085233 49 215 6.1 9.6 0.00 0.11 0.00 85 1010.0
20260505085118 49 325 5.2 8.7 0.00 0.11 0.00 86 1010.1
20260505085039 49 286 4.3 8.7 0.00 0.11 0.00 86 1010.1
20260505084929 49 214 3.5 8.7 0.00 0.11 0.00 86 1010.1
20260505084830 49 196 2.6 8.7 0.00 0.11 0.00 86 1010.1
20260505084721 49 243 2.6 8.7 0.00 0.11 0.00 86 1010.2
20260505084709 49 215 3.5 8.7 0.00 0.11 0.00 86 1010.2
20260505084650 49 159 5.2 8.7 0.00 0.11 0.00 86 1010.2
20260505084423 49 183 6.1 9.6 0.00 0.11 0.00 86 1010.2
20260505084317 49 134 5.2 9.6 0.00 0.11 0.00 86 1010.2
20260505084230 49 165 4.3 9.6 0.00 0.11 0.00 86 1010.2
20260505084130 49 163 3.5 9.6 0.00 0.11 0.00 86 1010.2
20260505084019 49 158 3.5 9.6 0.00 0.11 0.00 85 1010.2
20260505083938 49 180 4.3 9.6 0.00 0.11 0.00 85 1010.2
20260505083827 49 220 4.3 9.6 0.00 0.11 0.00 85 1010.2
20260505083743 49 196 5.2 9.6 0.00 0.11 0.00 85 1010.2
20260505083638 49 226 5.2 9.6 0.00 0.11 0.00 85 1010.3
20260505083532 49 195 4.3 10.4 0.00 0.11 0.00 84 1010.3
20260505083422 50 229 2.6 7.0 0.00 0.11 0.00 84 1010.4
20260505083335 49 202 3.5 6.1 0.00 0.11 0.00 84 1010.4
20260505083231 49 226 3.5 6.1 0.00 0.11 0.00 84 1010.4
20260505083217 49 207 3.5 6.1 0.00 0.11 0.00 84 1010.3
20260505083135 49 243 4.3 6.1 0.00 0.11 0.00 84 1010.4
20260505082938 49 212 3.5 6.1 0.00 0.11 0.00 84 1010.3
20260505082838 49 227 2.6 4.3 0.00 0.11 0.00 84 1010.4
20260505082722 49 216 1.7 3.5 0.00 0.11 0.00 84 1010.5
20260505082634 49 204 1.7 3.5 0.00 0.11 0.00 85 1010.5
20260505082521 49 235 1.7 2.6 0.00 0.11 0.00 85 1010.4
20260505082416 49 246 1.7 2.6 0.00 0.11 0.00 85 1010.5
20260505082344 49 247 0.9 2.6 0.00 0.11 0.00 85 1010.4
20260505082227 49 247 0.9 2.6 0.00 0.11 0.00 85 1010.3
20260505082122 49 244 0.9 1.7 0.00 0.11 0.00 84 1010.4
20260505082027 49 241 0.9 1.7 0.00 0.11 0.00 84 1010.4
20260505081918 49 242 0.0 1.7 0.00 0.11 0.00 84 1010.4
20260505081829 49 246 0.0 1.7 0.00 0.11 0.00 84 1010.4
20260505081729 49 248 0.0 1.7 0.00 0.11 0.00 84 1010.4
20260505081724 49 253 0.0 1.7 0.00 0.11 0.00 84 1010.5
20260505081706 49 255 0.0 1.7 0.00 0.11 0.00 84 1010.5
20260505081433 49 259 0.0 1.7 0.00 0.11 0.00 85 1010.4
20260505081327 49 258 0.9 1.7 0.00 0.11 0.00 85 1010.4
20260505081240 49 249 0.9 1.7 0.00 0.11 0.00 85 1010.4
20260505081116 49 213 0.9 1.7 0.00 0.11 0.00 85 1010.4
20260505081042 49 201 0.9 1.7 0.00 0.11 0.00 85 1010.3
20260505080920 49 187 0.9 1.7 0.00 0.11 0.00 86 1010.4
20260505080820 49 163 0.9 1.7 0.00 0.11 0.00 86 1010.4
20260505080724 49 141 0.9 1.7 0.00 0.11 0.00 86 1010.4
20260505080630 49 123 0.0 1.7 0.00 0.11 0.00 86 1010.4
20260505080538 49 74 0.0 0.9 0.00 0.11 0.00 87 1010.4
20260505080418 49 61 0.0 0.0 0.00 0.11 0.00 87 1010.4
20260505080328 49 61 0.0 0.0 0.00 0.11 0.00 87 1010.3
20260505080256 49 61 0.0 0.0 0.00 0.11 0.00 87 1010.3
20260505080248 48 61 0.0 0.0 0.00 0.11 0.00 87 1010.2
20260505080229 48 61 0.0 0.0 0.00 0.11 0.00 87 1010.3
20260505075941 48 61 0.0 0.0 0.00 0.11 0.00 87 1010.2
20260505075826 48 61 0.0 0.0 0.00 0.11 0.00 87 1010.2
20260505075721 48 61 0.0 0.0 0.00 0.11 0.00 87 1010.2
20260505075643 48 61 0.0 0.0 0.00 0.11 0.00 87 1010.2
20260505075539 48 61 0.0 0.0 0.00 0.11 0.00 87 1010.1
20260505075438 48 61 0.0 0.0 0.00 0.11 0.00 87 1010.2
20260505075334 48 61 0.0 0.0 0.00 0.11 0.00 87 1010.2
20260505075223 48 61 0.0 0.0 0.00 0.11 0.00 87 1010.2
20260505075130 48 61 0.0 0.0 0.00 0.11 0.00 87 1010.3
20260505075044 48 61 0.0 0.0 0.00 0.11 0.00 87 1010.4
20260505074920 48 61 0.0 0.9 0.00 0.11 0.00 87 1010.3
20260505074837 48 61 0.0 0.9 0.00 0.11 0.00 87 1010.3
20260505074735 48 61 0.0 0.9 0.00 0.11 0.00 87 1010.2
20260505074721 48 61 0.0 0.9 0.00 0.11 0.00 87 1010.2
20260505074626 48 61 0.0 0.9 0.00 0.11 0.00 87 1010.3
20260505074443 48 61 0.0 1.7 0.00 0.11 0.00 87 1010.3
20260505074340 48 61 0.0 1.7 0.00 0.11 0.00 87 1010.3
20260505074218 48 61 0.0 1.7 0.00 0.11 0.00 87 1010.3
20260505074138 48 61 0.0 1.7 0.00 0.11 0.00 87 1010.3
20260505074035 48 61 0.0 1.7 0.00 0.11 0.00 87 1010.2
20260505073935 48 64 0.0 1.7 0.00 0.11 0.00 87 1010.3
20260505073821 48 68 0.0 1.7 0.00 0.11 0.00 87 1010.3
20260505073723 48 68 0.0 1.7 0.00 0.11 0.00 87 1010.4
20260505073636 48 61 0.0 1.7 0.00 0.11 0.00 87 1010.3
20260505073535 48 59 0.0 1.7 0.00 0.11 0.00 87 1010.4
20260505073445 48 66 0.0 1.7 0.00 0.11 0.00 87 1010.4
20260505073337 48 70 0.0 1.7 0.00 0.11 0.00 87 1010.4
20260505073255 48 77 0.0 1.7 0.00 0.11 0.00 87 1010.5
20260505073243 49 78 0.0 1.7 0.00 0.11 0.00 87 1010.5
20260505073218 48 78 0.0 1.7 0.00 0.11 0.00 87 1010.5
20260505072922 49 80 0.0 1.7 0.00 0.11 0.00 87 1010.4
20260505072831 49 82 0.0 1.7 0.00 0.11 0.00 88 1010.6
20260505072735 49 84 0.0 1.7 0.00 0.11 0.00 88 1010.5
20260505072641 49 93 0.0 1.7 0.00 0.11 0.00 88 1010.5
20260505072542 48 86 0.0 1.7 0.00 0.11 0.00 88 1010.4
20260505072424 49 73 0.0 2.6 0.00 0.11 0.00 88 1010.5
20260505072318 49 73 0.0 2.6 0.00 0.11 0.00 87 1010.5
20260505072238 48 73 0.0 2.6 0.00 0.11 0.00 87 1010.5
20260505072138 48 78 0.0 2.6 0.00 0.11 0.00 87 1010.5
20260505072034 49 78 0.0 2.6 0.00 0.11 0.00 87 1010.6
20260505071935 48 76 0.0 2.6 0.00 0.11 0.00 87 1010.6
20260505071837 48 74 0.0 2.6 0.00 0.11 0.00 87 1010.7
20260505071738 48 74 0.9 2.6 0.00 0.11 0.00 87 1010.6
20260505071719 48 90 0.9 2.6 0.00 0.11 0.00 87 1010.7
20260505071641 48 77 0.9 2.6 0.00 0.11 0.00 87 1010.6
20260505071416 48 82 0.9 2.6 0.00 0.11 0.00 87 1010.7
20260505071327 48 94 0.9 2.6 0.00 0.11 0.00 87 1010.6
20260505071231 48 109 0.9 2.6 0.00 0.11 0.00 87 1010.8
20260505071138 48 94 0.9 2.6 0.00 0.11 0.00 87 1010.7
20260505071021 48 88 0.9 2.6 0.00 0.11 0.00 87 1010.7
20260505070940 48 106 0.9 2.6 0.00 0.11 0.00 87 1010.7
20260505070816 48 94 0.9 2.6 0.00 0.11 0.00 87 1010.7
20260505070717 48 86 0.9 2.6 0.00 0.11 0.00 87 1010.9
20260505070634 48 79 0.0 2.6 0.00 0.11 0.00 87 1010.8
20260505070532 48 90 0.9 2.6 0.00 0.11 0.00 87 1010.8
20260505070418 48 90 0.9 2.6 0.00 0.11 0.00 87 1010.8
20260505070318 48 53 0.0 1.7 0.00 0.11 0.00 87 1010.8
20260505070305 48 41 0.0 1.7 0.00 0.11 0.00 87 1010.8
20260505070257 48 41 0.0 1.7 0.00 0.11 0.00 87 1010.8
20260505070227 48 42 0.0 1.7 0.00 0.11 0.00 87 1010.7
20260505065935 48 42 0.0 1.7 0.00 0.11 0.00 87 1010.9
20260505065840 48 42 0.0 2.6 0.00 0.11 0.00 87 1010.7
20260505065738 48 40 0.0 2.6 0.00 0.11 0.00 87 1010.7
20260505065643 48 41 0.0 3.5 0.00 0.11 0.00 87 1010.7
20260505065520 48 41 0.0 3.5 0.00 0.11 0.00 87 1010.7
20260505065429 48 41 0.0 3.5 0.00 0.11 0.00 87 1010.7
20260505065333 48 60 0.9 3.5 0.00 0.11 0.00 87 1010.7
20260505065222 48 62 0.0 3.5 0.00 0.11 0.00 87 1010.7
20260505065131 48 75 0.9 3.5 0.00 0.11 0.00 87 1010.6
20260505065038 48 78 0.9 3.5 0.00 0.11 0.00 87 1010.7
20260505064944 48 77 1.7 3.5 0.00 0.11 0.00 87 1010.7
20260505064839 48 88 1.7 3.5 0.00 0.11 0.00 87 1010.6
20260505064753 48 106 1.7 3.5 0.00 0.11 0.00 87 1010.7
20260505064742 48 86 0.9 3.5 0.00 0.11 0.00 87 1010.7
20260505064723 48 81 0.9 5.2 0.00 0.11 0.00 87 1010.7
20260505064437 48 49 1.7 5.2 0.00 0.11 0.00 87 1010.7
20260505064331 48 81 1.7 5.2 0.00 0.11 0.00 87 1010.7
20260505064221 48 109 1.7 5.2 0.00 0.11 0.00 87 1010.7
20260505064132 48 80 1.7 5.2 0.00 0.11 0.00 87 1010.7
20260505064033 49 87 0.9 5.2 0.00 0.11 0.00 87 1010.7
20260505063923 49 82 0.9 5.2 0.00 0.11 0.00 87 1010.7
20260505063819 49 81 0.9 5.2 0.00 0.11 0.00 87 1010.7
20260505063726 48 90 0.9 5.2 0.00 0.11 0.00 86 1010.7
20260505063644 48 63 0.9 5.2 0.00 0.11 0.00 87 1010.7
20260505063524 48 76 0.9 5.2 0.00 0.11 0.00 87 1010.8
20260505063429 48 87 0.9 5.2 0.00 0.11 0.00 87 1010.7
20260505063326 49 82 1.7 5.2 0.00 0.11 0.00 87 1010.7
20260505063252 49 66 1.7 5.2 0.00 0.11 0.00 87 1010.7
20260505063240 49 81 0.9 5.2 0.00 0.11 0.00 87 1010.7
20260505063133 49 97 0.9 5.2 0.00 0.11 0.00 87 1010.6
20260505062944 49 119 0.9 5.2 0.00 0.11 0.00 87 1010.7
20260505062834 49 65 1.7 5.2 0.00 0.11 0.00 87 1010.8
20260505062718 49 68 2.6 5.2 0.00 0.11 0.00 87 1010.7
20260505062635 49 82 1.7 6.1 0.00 0.11 0.00 87 1010.8
20260505062544 49 68 0.9 1.7 0.00 0.11 0.00 87 1010.8
20260505062440 49 82 0.0 1.7 0.00 0.11 0.00 87 1010.8
20260505062327 49 60 0.9 1.7 0.00 0.11 0.00 87 1010.8
20260505062233 49 51 0.9 5.2 0.00 0.11 0.00 87 1010.8
20260505062130 49 69 0.0 5.2 0.00 0.11 0.00 87 1010.9
20260505062038 49 59 0.0 5.2 0.00 0.11 0.00 87 1010.9
20260505061942 49 57 0.0 5.2 0.00 0.11 0.00 87 1010.8
20260505061825 49 64 0.9 5.2 0.00 0.11 0.00 86 1010.8
20260505061742 49 64 0.9 5.2 0.00 0.11 0.00 86 1010.8
20260505061733 49 49 0.9 5.2 0.00 0.11 0.00 86 1010.8
20260505061711 49 57 0.9 5.2 0.00 0.11 0.00 86 1010.8
20260505061422 49 59 1.7 5.2 0.00 0.11 0.00 86 1010.7
20260505061328 49 93 1.7 3.5 0.00 0.11 0.00 86 1010.9
20260505061224 49 84 1.7 3.5 0.00 0.11 0.00 86 1010.8
20260505061118 48 81 1.7 3.5 0.00 0.11 0.00 86 1010.9
20260505061035 48 68 0.9 3.5 0.00 0.11 0.00 86 1010.9
20260505060937 48 75 0.0 3.5 0.00 0.11 0.00 86 1010.8
20260505060822 49 73 0.0 5.2 0.00 0.11 0.00 86 1010.8
20260505060723 48 74 0.9 5.2 0.00 0.11 0.00 86 1010.9
20260505060635 48 67 1.7 5.2 0.00 0.11 0.00 86 1010.9
20260505060520 49 71 1.7 5.2 0.00 0.11 0.00 86 1010.9
20260505060427 49 107 1.7 5.2 0.00 0.11 0.00 86 1010.7
20260505060343 48 73 1.7 5.2 0.00 0.11 0.00 86 1010.8
20260505060252 48 84 1.7 5.2 0.00 0.11 0.00 86 1010.8
20260505060240 48 78 1.7 5.2 0.00 0.11 0.00 86 1010.9
20260505060201 48 69 2.6 5.2 0.00 0.11 0.00 86 1010.9
20260505055927 48 98 1.7 3.5 0.00 0.11 0.11 86 1010.8
20260505055818 48 71 1.7 3.5 0.00 0.11 0.11 86 1010.9
20260505055727 48 67 1.7 3.5 0.00 0.11 0.11 86 1010.9
20260505055639 48 116 1.7 3.5 0.00 0.11 0.11 86 1010.9
20260505055525 48 99 1.7 3.5 0.00 0.11 0.11 86 1010.9
20260505055430 48 113 1.7 6.1 0.00 0.11 0.11 86 1011.1
20260505055341 48 94 0.9 6.1 0.00 0.11 0.11 86 1011.0
20260505055221 48 82 0.9 6.1 0.00 0.11 0.11 86 1010.9
20260505055134 48 88 0.9 6.1 0.00 0.11 0.11 86 1010.9
20260505055043 48 96 0.9 6.1 0.00 0.11 0.11 86 1010.9
20260505054927 48 78 0.9 6.1 0.00 0.11 0.11 86 1010.9
20260505054837 48 100 1.7 6.1 0.00 0.11 0.11 86 1011.1
20260505054738 48 98 2.6 6.1 0.00 0.11 0.11 86 1011.1
20260505054725 48 109 2.6 6.1 0.00 0.11 0.11 86 1011.2
20260505054713 48 97 1.7 3.5 0.00 0.11 0.11 86 1011.2
20260505054418 48 111 1.7 3.5 0.00 0.11 0.11 86 1011.2
20260505054342 48 112 1.7 3.5 0.00 0.11 0.11 86 1011.2
20260505054239 48 103 1.7 3.5 0.00 0.11 0.11 86 1011.1
20260505054122 48 81 1.7 3.5 0.00 0.11 0.11 87 1010.9
20260505054025 48 115 1.7 3.5 0.00 0.11 0.11 87 1010.9
20260505053922 48 85 1.7 3.5 0.00 0.11 0.11 87 1010.8
20260505053831 48 78 0.9 3.5 0.00 0.11 0.11 87 1010.7
20260505053720 48 114 0.9 3.5 0.00 0.11 0.11 87 1010.6
20260505053623 48 100 1.7 3.5 0.00 0.11 0.11 87 1010.7
20260505053529 48 101 1.7 3.5 0.00 0.11 0.11 87 1010.6
20260505053426 48 71 1.7 3.5 0.00 0.11 0.11 86 1010.6
20260505053319 48 80 1.7 3.5 0.00 0.11 0.11 86 1010.6
20260505053230 48 79 1.7 3.5 0.00 0.11 0.11 87 1010.7
20260505053216 48 95 1.7 3.5 0.00 0.11 0.11 86 1010.7
20260505053121 48 87 1.7 3.5 0.00 0.11 0.11 86 1010.7
20260505052931 48 92 1.7 3.5 0.00 0.11 0.11 86 1010.7
20260505052844 49 77 1.7 3.5 0.00 0.11 0.11 86 1010.7
20260505052741 48 83 1.7 3.5 0.00 0.11 0.11 86 1010.7
20260505052636 48 88 1.7 2.6 0.00 0.11 0.11 86 1010.7
20260505052521 48 105 1.7 2.6 0.00 0.11 0.11 86 1010.7
20260505052443 48 109 1.7 2.6 0.00 0.11 0.11 86 1010.7
20260505052330 48 109 0.9 2.6 0.00 0.11 0.11 86 1010.8
20260505052230 48 95 0.9 2.6 0.01 0.11 0.11 86 1010.7
20260505052132 48 96 0.9 3.5 0.01 0.11 0.11 86 1010.7
20260505052024 48 106 0.9 3.5 0.01 0.11 0.11 86 1010.8
20260505051932 48 98 0.9 3.5 0.01 0.11 0.11 86 1010.9
20260505051837 48 89 0.0 3.5 0.01 0.11 0.11 85 1010.8
20260505051726 48 76 0.0 3.5 0.01 0.11 0.11 85 1010.9
20260505051719 48 74 0.9 3.5 0.01 0.11 0.11 85 1010.8
20260505051708 48 78 1.7 3.5 0.01 0.11 0.11 85 1010.8
20260505051442 48 85 1.7 3.5 0.01 0.11 0.11 85 1010.9
20260505051325 48 82 1.7 3.5 0.01 0.11 0.11 86 1011.0
20260505051226 48 88 1.7 3.5 0.02 0.11 0.11 86 1011.0
20260505051130 48 77 1.7 3.5 0.02 0.11 0.11 86 1011.1
20260505051026 48 84 1.7 3.5 0.02 0.11 0.11 86 1011.1
20260505050934 48 119 1.7 3.5 0.02 0.11 0.11 86 1011.1
20260505050834 48 59 0.9 3.5 0.02 0.11 0.11 86 1011.0
20260505050720 48 101 0.9 3.5 0.02 0.11 0.11 85 1011.1
20260505050622 48 101 0.9 3.5 0.02 0.11 0.11 85 1011.1
20260505050532 48 107 1.7 3.5 0.02 0.11 0.11 85 1011.0
20260505050430 48 76 1.7 3.5 0.03 0.11 0.11 85 1011.0
20260505050331 48 80 1.7 3.5 0.03 0.11 0.11 85 1011.1
20260505050251 48 78 1.7 3.5 0.03 0.11 0.11 85 1010.9
20260505050242 48 56 1.7 3.5 0.03 0.11 0.11 85 1011.0
20260505050228 48 81 0.9 3.5 0.03 0.11 0.11 85 1010.9
20260505041724 49 165 1.7 4.3 0.08 0.09 0.09 84 1011.3
20260505041721 49 151 1.7 4.3 0.09 0.09 0.09 84 1011.3
20260505041655 49 158 1.7 2.6 0.09 0.09 0.09 84 1011.4
20260505041423 49 166 1.7 3.5 0.09 0.09 0.09 83 1011.4
20260505041323 49 171 1.7 3.5 0.08 0.09 0.09 83 1011.4
20260505041243 49 170 1.7 3.5 0.09 0.09 0.09 83 1011.4
20260505041126 49 185 1.7 3.5 0.09 0.09 0.09 83 1011.4
20260505041025 49 162 1.7 3.5 0.09 0.09 0.09 84 1011.4
20260505040924 49 164 0.9 3.5 0.09 0.09 0.09 84 1011.4
20260505040821 49 178 0.9 3.5 0.09 0.09 0.09 83 1011.4
20260505040734 49 186 1.7 3.5 0.09 0.09 0.09 83 1011.4
20260505040631 49 170 1.7 4.3 0.09 0.09 0.09 83 1011.4
20260505040533 49 140 0.0 3.5 0.08 0.08 0.08 84 1011.3
20260505040433 49 172 0.0 6.1 0.08 0.08 0.08 83 1011.4
20260505040345 49 196 0.9 7.0 0.08 0.08 0.08 83 1011.2
20260505040249 49 192 1.7 7.0 0.08 0.08 0.08 83 1011.4
20260505040247 49 171 1.7 7.0 0.08 0.08 0.08 82 1011.4
20260505040228 49 159 1.7 7.0 0.08 0.08 0.08 82 1011.4
20260505035936 49 164 2.6 7.8 0.08 0.08 0.08 82 1011.4
20260505035830 49 138 2.6 7.8 0.08 0.08 0.08 82 1011.4
20260505035723 49 163 2.6 7.8 0.08 0.08 0.08 82 1011.4
20260505035635 49 161 3.5 7.8 0.07 0.07 0.07 83 1011.4
20260505035532 49 140 1.7 7.8 0.07 0.07 0.07 83 1011.2
20260505035427 49 180 2.6 7.8 0.07 0.07 0.07 83 1011.3
20260505035328 49 173 4.3 7.8 0.07 0.07 0.07 82 1011.4
20260505035238 49 111 5.2 7.8 0.07 0.07 0.07 82 1011.3
20260505035124 49 140 4.3 7.8 0.07 0.07 0.07 82 1011.3
20260505035035 49 160 4.3 9.6 0.07 0.07 0.07 83 1011.3
20260505034930 49 180 3.5 9.6 0.07 0.07 0.07 83 1011.4
20260505034840 49 175 2.6 10.4 0.07 0.07 0.07 83 1011.3
20260505034736 49 167 2.6 10.4 0.07 0.07 0.07 83 1011.4
20260505034730 49 230 3.5 10.4 0.07 0.07 0.07 83 1011.4
20260505034711 49 199 3.5 10.4 0.06 0.06 0.06 82 1011.3
20260505034427 49 150 4.3 10.4 0.06 0.06 0.06 82 1011.3
20260505034341 49 209 5.2 10.4 0.06 0.06 0.06 82 1011.4
20260505034225 49 148 5.2 10.4 0.06 0.06 0.06 82 1011.3
20260505034126 49 151 7.0 10.4 0.06 0.06 0.06 81 1011.2
20260505034039 49 162 6.1 11.3 0.06 0.06 0.06 81 1011.2
20260505033936 49 135 4.3 11.3 0.06 0.06 0.06 81 1011.4
20260505033823 49 214 4.3 12.2 0.06 0.06 0.06 80 1011.2
20260505033722 49 254 4.3 12.2 0.06 0.06 0.06 80 1011.3
20260505033621 50 181 5.2 12.2 0.06 0.06 0.06 79 1011.4
20260505033520 50 215 5.2 12.2 0.06 0.06 0.06 79 1011.4
20260505033445 50 211 5.2 12.2 0.04 0.04 0.04 79 1011.4
20260505033330 50 148 6.1 12.2 0.04 0.04 0.04 78 1011.5
20260505033231 50 201 6.1 12.2 0.04 0.04 0.04 78 1011.4
20260505033223 50 205 7.0 12.2 0.04 0.04 0.04 77 1011.4
20260505033210 50 209 7.0 12.2 0.04 0.04 0.04 76 1011.4
20260505032943 51 244 6.1 12.2 0.04 0.04 0.04 76 1011.3
20260505032830 51 140 6.1 12.2 0.04 0.04 0.04 76 1011.2
20260505032745 51 178 6.1 12.2 0.04 0.04 0.04 75 1011.2
20260505032632 51 165 4.3 10.4 0.04 0.04 0.04 74 1011.1
20260505032537 51 235 3.5 13.0 0.04 0.04 0.04 74 1011.2
20260505032428 51 167 3.5 13.0 0.04 0.04 0.04 73 1011.2
20260505032330 51 171 4.3 13.0 0.04 0.04 0.04 72 1011.2
20260505032226 52 226 5.2 13.0 0.03 0.03 0.03 71 1011.2
20260505032119 52 194 5.2 13.0 0.03 0.03 0.03 70 1011.2
20260505032043 52 217 4.3 13.0 0.03 0.03 0.03 69 1011.1
20260505031931 52 198 5.2 13.0 0.02 0.02 0.02 68 1011.0
20260505031818 52 242 7.8 13.0 0.02 0.02 0.02 68 1010.8
20260505031728 53 173 8.7 13.9 0.01 0.01 0.01 67 1010.7
20260505031707 53 148 7.8 13.9 0.01 0.01 0.01 66 1010.7
20260505031658 53 141 7.0 13.9 0.01 0.01 0.01 66 1010.7
20260505031433 53 211 6.1 13.9 0.01 0.01 0.01 65 1010.7
20260505031337 53 156 7.0 13.9 0.00 0.00 0.00 64 1010.7
20260505031243 54 195 7.0 13.9 0.00 0.00 0.00 64 1010.7
20260505031136 54 176 6.1 13.9 0.00 0.00 0.00 63 1010.7
20260505031032 54 161 7.0 13.9 0.00 0.00 0.00 62 1010.7
20260505030933 54 175 7.8 13.9 0.00 0.00 0.00 62 1010.6
20260505030823 54 203 7.0 9.6 0.00 0.00 0.00 61 1010.7
20260505030738 54 242 5.2 9.6 0.00 0.00 0.00 62 1010.7
20260505030645 54 198 5.2 9.6 0.00 0.00 0.00 61 1010.6
20260505030538 54 150 6.1 9.6 0.00 0.00 0.00 61 1010.5
20260505030425 54 144 4.3 8.7 0.00 0.00 0.00 61 1010.4
20260505030318 55 167 3.5 7.0 0.00 0.00 0.00 61 1010.4
20260505030305 55 168 2.6 7.0 0.00 0.00 0.00 61 1010.4
20260505030257 55 190 2.6 6.1 0.00 0.00 0.00 61 1010.4
20260505030233 55 217 2.6 6.1 0.00 0.00 0.00 60 1010.4
20260505025938 55 225 2.6 6.1 0.00 0.00 0.00 61 1010.2
20260505025842 55 203 2.6 4.3 0.00 0.00 0.00 61 1010.2
20260505025729 55 221 2.6 6.1 0.00 0.00 0.00 61 1010.2
20260505025645 55 175 1.7 6.1 0.00 0.00 0.00 61 1010.2
20260505025522 55 178 0.9 6.1 0.00 0.00 0.00 61 1010.1
20260505025441 54 223 0.9 6.1 0.00 0.00 0.00 61 1010.0
20260505025334 54 260 0.9 7.8 0.00 0.00 0.00 61 1010.0
20260505025219 54 233 2.6 7.8 0.00 0.00 0.00 59 1009.9
20260505025139 54 296 2.6 9.6 0.00 0.00 0.00 60 1010.0
20260505025020 55 277 2.6 9.6 0.00 0.00 0.00 60 1010.0
20260505024940 54 258 3.5 9.6 0.00 0.00 0.00 60 1010.0
20260505024824 54 259 1.7 9.6 0.00 0.00 0.00 61 1009.9
20260505024738 54 288 1.7 9.6 0.00 0.00 0.00 60 1009.8
20260505024725 54 218 3.5 9.6 0.00 0.00 0.00 60 1009.8
20260505024711 54 229 5.2 11.3 0.00 0.00 0.00 60 1009.8
20260505024440 54 246 6.1 11.3 0.00 0.00 0.00 60 1009.8
20260505024341 55 285 6.1 11.3 0.00 0.00 0.00 60 1009.8
20260505024223 55 281 4.3 11.3 0.00 0.00 0.00 60 1009.8
20260505024116 55 247 3.5 11.3 0.00 0.00 0.00 60 1009.8
20260505024044 55 254 5.2 11.3 0.00 0.00 0.00 60 1009.8
20260505023934 55 264 6.1 11.3 0.00 0.00 0.00 60 1009.7
20260505023844 55 300 7.0 11.3 0.00 0.00 0.00 60 1009.8
20260505023732 55 295 7.8 11.3 0.00 0.00 0.00 59 1009.7
20260505023629 55 284 7.0 10.4 0.00 0.00 0.00 59 1009.7
20260505023525 55 266 7.0 10.4 0.00 0.00 0.00 60 1009.7
20260505023442 55 281 7.0 10.4 0.00 0.00 0.00 60 1009.7
20260505023337 55 325 6.1 13.0 0.00 0.00 0.00 59 1009.6
20260505023222 56 297 6.1 13.0 0.00 0.00 0.00 59 1009.7
20260505023211 56 306 5.2 13.0 0.00 0.00 0.00 58 1009.7
20260505023145 56 291 5.2 13.0 0.00 0.00 0.00 59 1009.5
20260505022918 56 278 4.3 13.0 0.00 0.00 0.00 57 1009.7
20260505022844 56 289 6.1 13.0 0.00 0.00 0.00 57 1009.5
20260505022738 56 280 7.0 13.0 0.00 0.00 0.00 56 1009.5
20260505022644 56 259 8.7 13.0 0.00 0.00 0.00 56 1009.5
20260505022541 57 231 9.6 13.0 0.00 0.00 0.00 56 1009.4
20260505022427 57 280 7.8 13.0 0.00 0.00 0.00 55 1009.1
20260505022339 57 310 5.2 13.0 0.00 0.00 0.00 53 1009.2
20260505022230 57 320 2.6 7.0 0.00 0.00 0.00 53 1009.4
20260505022117 57 290 1.7 3.5 0.00 0.00 0.00 52 1009.3
20260505022031 57 282 0.9 3.5 0.00 0.00 0.00 53 1009.4
20260505021928 57 288 0.9 2.6 0.00 0.00 0.00 53 1009.3
20260505021838 57 284 0.9 2.6 0.00 0.00 0.00 52 1009.3
20260505021737 57 268 0.9 2.6 0.00 0.00 0.00 53 1009.3
20260505021728 57 287 0.9 2.6 0.00 0.00 0.00 52 1009.3
20260505021659 57 250 0.9 2.6 0.00 0.00 0.00 54 1009.3
20260505021420 57 200 0.9 2.6 0.00 0.00 0.00 53 1009.3
20260505021325 57 244 0.9 2.6 0.00 0.00 0.00 53 1009.3
20260505021241 57 307 0.9 2.6 0.00 0.00 0.00 53 1009.3
20260505021121 57 292 0.9 2.6 0.00 0.00 0.00 54 1009.3
20260505021044 57 268 0.9 3.5 0.00 0.00 0.00 54 1009.3
20260505020934 57 267 0.0 3.5 0.00 0.00 0.00 54 1009.3
20260505020839 57 267 0.9 3.5 0.00 0.00 0.00 54 1009.3
20260505020744 56 272 0.0 3.5 0.00 0.00 0.00 54 1009.3
20260505020642 56 267 0.0 3.5 0.00 0.00 0.00 53 1009.3
20260505020525 56 275 0.9 3.5 0.00 0.00 0.00 54 1009.3
20260505020421 56 276 1.7 3.5 0.00 0.00 0.00 54 1009.4
20260505020331 56 277 1.7 3.5 0.00 0.00 0.00 53 1009.5
20260505020250 56 270 1.7 3.5 0.00 0.00 0.00 54 1009.5
20260505020235 56 260 1.7 3.5 0.00 0.00 0.00 54 1009.5
20260505020127 56 312 1.7 3.5 0.00 0.00 0.00 54 1009.5
20260505015924 56 278 1.7 3.5 0.00 0.00 0.00 55 1009.5
20260505015827 56 273 1.7 3.5 0.00 0.00 0.00 55 1009.5
20260505015724 56 295 1.7 3.5 0.00 0.00 0.00 55 1009.5
20260505015639 56 333 0.9 2.6 0.00 0.00 0.00 56 1009.4
20260505015537 56 319 0.9 3.5 0.00 0.00 0.00 56 1009.4
20260505015424 56 309 0.0 3.5 0.00 0.00 0.00 57 1009.4
20260505015334 56 308 0.0 3.5 0.00 0.00 0.00 57 1009.3
20260505015225 56 302 0.9 3.5 0.00 0.00 0.00 56 1009.3
20260505015145 56 300 0.9 3.5 0.00 0.00 0.00 55 1009.5
20260505015042 56 308 0.9 3.5 0.00 0.00 0.00 57 1009.4
20260505014917 56 303 0.9 4.3 0.00 0.00 0.00 57 1009.4
20260505014834 56 304 0.9 4.3 0.00 0.00 0.00 57 1009.2
20260505014748 56 306 1.7 4.3 0.00 0.00 0.00 58 1009.2
20260505014733 56 276 0.9 4.3 0.00 0.00 0.00 59 1009.2
20260505014641 56 349 0.0 4.3 0.00 0.00 0.00 58 1009.1
20260505014434 56 350 0.0 4.3 0.00 0.00 0.00 58 1009.1
20260505014340 56 322 0.9 4.3 0.00 0.00 0.00 58 1009.1
20260505014222 56 302 1.7 4.3 0.00 0.00 0.00 58 1009.1
20260505014118 56 35 2.6 4.3 0.00 0.00 0.00 57 1009.1
20260505014024 56 360 1.7 4.3 0.00 0.00 0.00 58 1009.0
20260505013928 56 350 1.7 3.5 0.00 0.00 0.00 58 1009.1
20260505013835 56 347 1.7 3.5 0.00 0.00 0.00 59 1009.0
20260505013728 56 340 1.7 3.5 0.00 0.00 0.00 59 1009.0
20260505013640 56 333 0.9 3.5 0.00 0.00 0.00 60 1008.9
20260505013544 56 10 0.0 3.5 0.00 0.00 0.00 60 1008.9
20260505013419 56 307 0.9 3.5 0.00 0.00 0.00 58 1008.9
20260505013317 56 297 0.9 3.5 0.00 0.00 0.00 57 1008.9
20260505013224 56 298 1.7 3.5 0.00 0.00 0.00 57 1008.9
20260505013220 56 275 2.6 3.5 0.00 0.00 0.00 56 1008.9
20260505013202 56 277 1.7 3.5 0.00 0.00 0.00 57 1008.9
20260505012929 56 295 1.7 3.5 0.00 0.00 0.00 57 1008.8
20260505012820 56 234 1.7 3.5 0.00 0.00 0.00 56 1008.9
20260505012721 56 258 1.7 3.5 0.00 0.00 0.00 56 1009.0
20260505012620 56 274 1.7 3.5 0.00 0.00 0.00 57 1009.0
20260505012542 56 272 0.9 3.5 0.00 0.00 0.00 58 1009.0
20260505012442 56 263 0.9 3.5 0.00 0.00 0.00 56 1009.0
20260505012317 56 261 1.7 4.3 0.00 0.00 0.00 57 1009.0
20260505012233 56 263 1.7 4.3 0.00 0.00 0.00 57 1009.0
20260505012129 55 273 1.7 4.3 0.00 0.00 0.00 58 1009.0
20260505012036 55 263 1.7 4.3 0.00 0.00 0.00 59 1009.0
20260505011917 55 267 1.7 4.3 0.00 0.00 0.00 60 1009.0
20260505011829 55 234 2.6 4.3 0.00 0.00 0.00 60 1008.9
20260505011730 55 238 2.6 4.3 0.00 0.00 0.00 58 1008.9
20260505011713 55 291 2.6 4.3 0.00 0.00 0.00 59 1008.9
20260505011657 55 277 1.7 3.5 0.00 0.00 0.00 60 1008.9
20260505011421 55 256 1.7 3.5 0.00 0.00 0.00 62 1008.9
20260505011328 55 277 0.9 3.5 0.00 0.00 0.00 61 1008.9
20260505011243 55 321 0.0 3.5 0.00 0.00 0.00 60 1008.9
20260505011121 55 323 0.9 3.5 0.00 0.00 0.00 60 1009.0
20260505011032 55 333 0.9 3.5 0.00 0.00 0.00 61 1009.0
20260505010923 55 324 1.7 3.5 0.00 0.00 0.00 63 1009.0
20260505010844 55 323 1.7 3.5 0.00 0.00 0.00 62 1009.1
20260505010743 55 333 0.9 1.7 0.00 0.00 0.00 63 1009.1
20260505010623 55 349 0.0 3.5 0.00 0.00 0.00 62 1009.1
20260505010521 55 351 0.0 3.5 0.00 0.00 0.00 61 1009.0
20260505010441 55 9 0.0 3.5 0.00 0.00 0.00 62 1009.0
20260505010339 55 5 0.0 3.5 0.00 0.00 0.00 62 1009.0
20260505010258 55 9 0.0 3.5 0.00 0.00 0.00 62 1009.0
20260505010242 55 15 0.9 3.5 0.00 0.00 0.00 61 1009.0
20260505010138 56 19 0.9 3.5 0.00 0.00 0.00 60 1009.1
20260505005927 56 19 1.7 3.5 0.00 0.00 0.00 60 1009.0
20260505005838 56 13 1.7 4.3 0.00 0.00 0.00 60 1009.0
20260505005735 56 13 0.9 4.3 0.00 0.00 0.00 59 1009.1
20260505005619 56 17 0.9 7.0 0.00 0.00 0.00 59 1009.0
20260505005533 56 23 1.7 7.0 0.00 0.00 0.00 56 1008.9
20260505005421 56 43 1.7 7.0 0.00 0.00 0.00 55 1009.0
20260505005347 56 64 0.9 7.0 0.00 0.00 0.00 55 1009.1
20260505005232 56 46 1.7 7.8 0.00 0.00 0.00 53 1009.0
20260505005144 56 76 1.7 9.6 0.00 0.00 0.00 54 1009.1
20260505005027 56 103 2.6 10.4 0.00 0.00 0.00 53 1009.2
20260505004929 56 40 2.6 10.4 0.00 0.00 0.00 55 1009.4
20260505004831 57 65 2.6 10.4 0.00 0.00 0.00 54 1009.4
20260505004759 57 72 3.5 10.4 0.00 0.00 0.00 52 1009.3
20260505004752 57 123 3.5 10.4 0.00 0.00 0.00 54 1009.5
20260505004707 57 109 4.3 10.4 0.00 0.00 0.00 53 1009.5
20260505004427 57 106 7.0 10.4 0.00 0.00 0.00 52 1009.5
20260505004330 58 155 7.0 10.4 0.00 0.00 0.00 51 1009.5
20260505004243 58 159 4.3 12.2 0.00 0.00 0.00 53 1009.5
20260505004129 58 137 2.6 13.0 0.00 0.00 0.00 53 1009.6
20260505004039 59 136 2.6 13.0 0.00 0.00 0.00 51 1009.7
20260505003936 59 94 1.7 13.0 0.00 0.00 0.00 51 1009.6
20260505003837 59 90 1.7 13.0 0.00 0.00 0.00 50 1009.5
20260505003729 59 157 2.6 13.0 0.00 0.00 0.00 48 1009.5
20260505003625 59 171 3.5 13.0 0.00 0.00 0.00 47 1009.5
20260505003544 60 182 5.2 13.0 0.00 0.00 0.00 45 1009.4
20260505003443 60 177 7.0 13.0 0.00 0.00 0.00 44 1009.4
20260505003321 60 148 7.8 13.0 0.00 0.00 0.00 43 1009.5
20260505003258 60 143 8.7 10.4 0.00 0.00 0.00 42 1009.4
20260505003252 61 178 7.8 10.4 0.00 0.00 0.00 41 1009.3
20260505003232 61 167 7.0 12.2 0.00 0.00 0.00 41 1009.4
20260505002929 61 144 6.1 10.4 0.00 0.00 0.00 40 1009.3
20260505002835 61 159 7.8 10.4 0.00 0.00 0.00 40 1009.3
20260505002742 61 149 7.0 10.4 0.00 0.00 0.00 40 1009.2
20260505002641 61 150 5.2 10.4 0.00 0.00 0.00 40 1009.3
20260505002535 61 155 6.1 10.4 0.00 0.00 0.00 40 1009.3
20260505002430 61 177 5.2 13.0 0.00 0.00 0.00 40 1009.3
20260505002343 61 165 5.2 13.0 0.00 0.00 0.00 40 1009.2
20260505002226 61 180 5.2 13.0 0.00 0.00 0.00 40 1009.2
20260505002145 61 223 5.2 13.0 0.00 0.00 0.00 40 1009.2
20260505002026 61 223 6.1 13.0 0.00 0.00 0.00 39 1009.2
20260505001935 61 186 4.3 14.8 0.00 0.00 0.00 39 1009.1
20260505001819 61 169 3.5 14.8 0.00 0.00 0.00 40 1009.1
20260505001753 61 215 6.1 14.8 0.00 0.00 0.00 40 1009.0
20260505001743 61 186 7.8 14.8 0.00 0.00 0.00 39 1009.0
20260505001722 61 173 7.8 14.8 0.00 0.00 0.00 39 1009.0
20260505001421 61 167 7.8 14.8 0.00 0.00 0.00 39 1009.0
20260505001320 61 141 9.6 14.8 0.00 0.00 0.00 39 1008.9
20260505001246 61 183 9.6 14.8 0.00 0.00 0.00 39 1008.9
20260505001123 61 134 8.7 15.6 0.00 0.00 0.00 39 1008.9
20260505001029 61 163 8.7 14.8 0.00 0.00 0.00 39 1008.9
20260505000922 61 171 7.0 14.8 0.00 0.00 0.00 39 1008.8
20260505000833 61 160 7.8 14.8 0.00 0.00 0.00 39 1008.8
20260505000722 61 200 7.8 14.8 0.00 0.00 0.00 39 1008.8
20260505000633 61 173 7.8 14.8 0.00 0.00 0.00 39 1008.7
20260505000526 61 148 7.8 14.8 0.00 0.00 0.00 39 1008.7
20260505000422 62 180 7.8 13.9 0.00 0.00 0.00 38 1008.7
20260505000314 62 275 7.8 13.9 0.00 0.00 0.00 37 1008.5
20260505000310 62 225 5.2 13.9 0.00 0.00 0.00 37 1008.4
20260505000219 62 196 5.2 13.9 0.00 0.00 0.00 37 1008.3
20260504235930 62 211 5.2 13.9 0.00 0.00 0.00 37 1008.4
20260504235838 62 168 6.1 13.9 0.00 0.00 0.00 37 1008.5
20260504235740 62 220 7.0 13.9 0.00 0.00 0.00 37 1008.4
20260504235633 62 167 5.2 13.9 0.00 0.00 0.00 36 1008.3
20260504235542 62 169 4.3 7.8 0.00 0.00 0.00 36 1008.3
20260504235439 62 219 3.5 7.8 0.00 0.00 0.00 36 1008.3
20260504235335 62 188 0.9 7.0 0.00 0.00 0.00 36 1008.2
20260504235233 62 181 1.7 7.0 0.00 0.00 0.00 36 1008.2
20260504235141 62 194 2.6 7.0 0.00 0.00 0.00 36 1008.3
20260504235042 62 192 3.5 7.0 0.00 0.00 0.00 36 1008.3
20260504234918 62 214 3.5 8.7 0.00 0.00 0.00 35 1008.4
20260504234836 62 204 3.5 8.7 0.00 0.00 0.00 35 1008.5
20260504234802 62 185 2.6 8.7 0.00 0.00 0.00 36 1008.3
20260504234753 62 207 1.7 8.7 0.00 0.00 0.00 36 1008.2
20260504234721 62 175 2.6 8.7 0.00 0.00 0.00 36 1008.2
20260504234434 62 271 3.5 8.7 0.00 0.00 0.00 35 1008.1
20260504234328 63 254 3.5 8.7 0.00 0.00 0.00 35 1008.2
20260504234245 63 215 4.3 10.4 0.00 0.00 0.00 35 1008.1
20260504234118 63 209 4.3 12.2 0.00 0.00 0.00 35 1008.0
20260504234035 63 257 3.5 12.2 0.00 0.00 0.00 35 1008.1
20260504233923 63 286 4.3 12.2 0.00 0.00 0.00 36 1008.1
20260504233841 63 196 3.5 12.2 0.00 0.00 0.00 35 1008.1
20260504233721 63 234 2.6 12.2 0.00 0.00 0.00 35 1008.1
20260504233647 63 225 1.7 12.2 0.00 0.00 0.00 35 1008.1
20260504233527 63 204 3.5 12.2 0.00 0.00 0.00 35 1008.0
20260504233439 63 263 6.1 12.2 0.00 0.00 0.00 35 1008.0
20260504233319 63 239 6.1 12.2 0.00 0.00 0.00 35 1008.1
20260504233257 63 229 4.3 8.7 0.00 0.00 0.00 35 1007.9
20260504233246 63 248 4.3 8.7 0.00 0.00 0.00 35 1008.1
20260504233203 63 258 3.5 8.7 0.00 0.00 0.00 34 1008.1
20260504232933 63 303 4.3 8.7 0.00 0.00 0.00 34 1008.1
20260504232817 63 271 4.3 8.7 0.00 0.00 0.00 35 1008.0
20260504232744 63 273 3.5 8.7 0.00 0.00 0.00 35 1008.1
20260504232638 63 275 2.6 9.6 0.00 0.00 0.00 35 1008.1
20260504232522 63 182 3.5 10.4 0.00 0.00 0.00 35 1008.0
20260504232421 63 205 3.5 10.4 0.00 0.00 0.00 35 1007.9
20260504232344 63 191 3.5 10.4 0.00 0.00 0.00 35 1007.9
20260504232225 63 208 2.6 13.9 0.00 0.00 0.00 35 1007.9
20260504232131 63 190 2.6 13.9 0.00 0.00 0.00 34 1007.9
20260504232019 63 263 3.5 13.9 0.00 0.00 0.00 34 1007.9
20260504231930 63 161 5.2 13.9 0.00 0.00 0.00 35 1007.9
20260504231829 63 243 6.1 13.9 0.00 0.00 0.00 35 1007.9
20260504231754 63 178 6.1 13.9 0.00 0.00 0.00 35 1007.9
20260504231743 63 242 6.1 13.9 0.00 0.00 0.00 35 1007.9
20260504231721 63 233 7.8 14.8 0.00 0.00 0.00 35 1008.0
20260504231417 63 234 8.7 14.8 0.00 0.00 0.00 35 1008.0
20260504231329 63 256 7.8 14.8 0.00 0.00 0.00 35 1008.1
20260504231222 63 217 7.0 14.8 0.00 0.00 0.00 35 1008.0
20260504231128 63 219 7.0 14.8 0.00 0.00 0.00 35 1008.0
20260504231022 63 202 7.8 14.8 0.00 0.00 0.00 35 1008.1
20260504230939 63 273 8.7 14.8 0.00 0.00 0.00 34 1007.9
20260504230848 63 261 9.6 14.8 0.00 0.00 0.00 34 1007.9
20260504230734 63 269 8.7 14.8 0.00 0.00 0.00 34 1008.0
20260504230643 63 229 6.1 11.3 0.00 0.00 0.00 34 1007.9
20260504230524 63 244 7.0 11.3 0.00 0.00 0.00 34 1007.8
20260504230434 64 207 7.0 11.3 0.00 0.00 0.00 34 1007.7
20260504230317 64 259 5.2 11.3 0.00 0.00 0.00 34 1007.7
20260504230311 64 292 4.3 11.3 0.00 0.00 0.00 35 1007.7
20260504230215 64 207 6.1 11.3 0.00 0.00 0.00 34 1007.7
20260504225943 64 165 6.1 11.3 0.00 0.00 0.00 34 1007.6
20260504225844 64 209 6.1 10.4 0.00 0.00 0.00 34 1007.6
20260504225720 64 197 6.1 16.5 0.00 0.00 0.00 34 1007.6
20260504225623 64 280 5.2 16.5 0.00 0.00 0.00 34 1007.7
20260504225539 64 246 5.2 16.5 0.00 0.00 0.00 34 1007.6
20260504225430 64 252 3.5 16.5 0.00 0.00 0.00 34 1007.6
20260504225317 64 275 4.3 16.5 0.00 0.00 0.00 34 1007.6
20260504225246 64 222 7.0 16.5 0.00 0.00 0.00 33 1007.6
20260504225144 64 265 8.7 16.5 0.00 0.00 0.00 33 1007.4
20260504225031 64 275 9.6 16.5 0.00 0.00 0.00 33 1007.4
20260504224919 64 252 9.6 16.5 0.00 0.00 0.00 32 1007.3
20260504224809 64 259 7.8 15.6 0.00 0.00 0.00 32 1007.5
20260504224759 64 215 7.8 15.6 0.00 0.00 0.00 32 1007.5
20260504224740 64 242 7.0 14.8 0.00 0.00 0.00 31 1007.5
20260504224428 64 264 7.8 14.8 0.00 0.00 0.00 31 1007.5
20260504224339 64 246 9.6 15.6 0.00 0.00 0.00 31 1007.4
20260504224226 64 300 8.7 15.6 0.00 0.00 0.00 31 1007.4
20260504224124 64 238 9.6 15.6 0.00 0.00 0.00 31 1007.5
20260504224026 64 245 8.7 15.6 0.00 0.00 0.00 31 1007.6
20260504223944 64 279 6.1 15.6 0.00 0.00 0.00 32 1007.5
20260504223829 64 228 7.0 15.6 0.00 0.00 0.00 32 1007.5
20260504223746 64 269 7.0 15.6 0.00 0.00 0.00 31 1007.5
20260504223638 64 286 8.7 17.4 0.00 0.00 0.00 32 1007.6
20260504223538 64 252 9.6 17.4 0.00 0.00 0.00 31 1007.5
20260504223417 64 271 9.6 17.4 0.00 0.00 0.00 31 1007.5
20260504223316 64 279 10.4 19.1 0.00 0.00 0.00 31 1007.4
20260504223314 64 271 9.6 19.1 0.00 0.00 0.00 31 1007.3
20260504223304 64 274 8.7 19.1 0.00 0.00 0.00 31 1007.4
20260504223205 64 281 9.6 19.1 0.00 0.00 0.00 31 1007.6
20260504222930 64 276 11.3 19.1 0.00 0.00 0.00 31 1007.6
20260504222827 64 275 10.4 22.6 0.00 0.00 0.00 31 1007.6
20260504222739 64 292 9.6 22.6 0.00 0.00 0.00 31 1007.6
20260504222636 64 265 10.4 22.6 0.00 0.00 0.00 32 1007.5
20260504222540 64 269 7.8 24.3 0.00 0.00 0.00 32 1007.4
20260504222423 64 259 7.0 24.3 0.00 0.00 0.00 32 1007.4
20260504222323 64 279 7.8 24.3 0.00 0.00 0.00 32 1007.5
20260504222240 64 221 7.8 24.3 0.00 0.00 0.00 32 1007.6
20260504222138 64 218 10.4 24.3 0.00 0.00 0.00 32 1007.4
20260504222024 64 240 13.0 24.3 0.00 0.00 0.00 32 1007.6
20260504221923 64 228 13.0 24.3 0.00 0.00 0.00 32 1007.4
20260504221838 64 246 14.8 24.3 0.00 0.00 0.00 32 1007.3
20260504221755 64 281 13.0 24.3 0.00 0.00 0.00 31 1007.2
20260504221748 64 281 10.4 16.5 0.00 0.00 0.00 31 1007.1
20260504221727 64 275 10.4 15.6 0.00 0.00 0.00 31 1007.1
20260504221428 64 290 7.8 15.6 0.00 0.00 0.00 31 1007.0
20260504221334 64 253 6.1 14.8 0.00 0.00 0.00 31 1007.0
20260504221223 64 245 5.2 14.8 0.00 0.00 0.00 31 1007.1
20260504221120 64 128 5.2 14.8 0.00 0.00 0.00 31 1007.2
20260504221041 64 237 7.8 14.8 0.00 0.00 0.00 31 1007.2
20260504220945 64 254 8.7 19.1 0.00 0.00 0.00 31 1007.0
20260504220825 64 248 8.7 19.1 0.00 0.00 0.00 31 1007.2
20260504220739 64 240 8.7 19.1 0.00 0.00 0.00 31 1007.0
20260504220644 64 285 7.8 19.1 0.00 0.00 0.00 31 1007.1
20260504220535 64 196 7.8 19.1 0.00 0.00 0.00 31 1007.2
20260504220432 64 291 7.8 19.1 0.00 0.00 0.00 31 1007.2
20260504220327 64 254 7.0 19.1 0.00 0.00 0.00 31 1007.2
20260504220303 64 276 7.8 19.1 0.00 0.00 0.00 32 1007.1
20260504220250 64 232 8.7 19.1 0.00 0.00 0.00 31 1007.1
20260504220145 64 238 7.0 15.6 0.00 0.00 0.00 32 1007.0
20260504215920 64 279 6.1 15.6 0.00 0.00 0.00 32 1007.0
20260504215839 64 269 7.8 15.6 0.00 0.00 0.00 32 1007.0
20260504215720 64 225 8.7 15.6 0.00 0.00 0.00 31 1007.0
20260504215633 64 302 7.0 18.2 0.00 0.00 0.00 32 1007.0
20260504215530 64 214 7.0 20.9 0.00 0.00 0.00 32 1007.0
20260504215431 64 229 8.7 20.9 0.00 0.00 0.00 31 1006.9
20260504215333 65 264 7.8 20.9 0.00 0.00 0.00 31 1006.8
20260504215221 65 232 7.8 20.9 0.00 0.00 0.00 31 1006.7
20260504215121 65 250 10.4 20.9 0.00 0.00 0.00 31 1006.6
20260504215034 65 309 10.4 20.9 0.00 0.00 0.00 31 1006.7
20260504214930 65 242 11.3 20.9 0.00 0.00 0.00 31 1006.7
20260504214819 65 269 11.3 20.9 0.00 0.00 0.00 30 1006.7
20260504214754 65 284 11.3 20.9 0.00 0.00 0.00 30 1006.6
20260504214745 65 227 10.4 20.0 0.00 0.00 0.00 30 1006.5
20260504214729 66 237 8.7 20.0 0.00 0.00 0.00 29 1006.4
20260504214435 66 234 9.6 20.0 0.00 0.00 0.00 29 1006.5
20260504214326 66 256 12.2 20.0 0.00 0.00 0.00 28 1006.4
20260504214240 67 261 13.0 20.0 0.00 0.00 0.00 27 1006.5
20260504214132 67 271 10.4 20.0 0.00 0.00 0.00 24 1006.5
20260504214023 67 273 7.8 17.4 0.00 0.00 0.00 24 1006.7
20260504213916 67 293 7.0 13.9 0.00 0.00 0.00 24 1006.5
20260504213837 67 329 7.8 13.9 0.00 0.00 0.00 24 1006.3
20260504213729 67 250 7.8 13.9 0.00 0.00 0.00 24 1006.2
20260504213633 67 323 6.1 13.9 0.00 0.00 0.00 24 1006.1
20260504213521 67 329 5.2 13.9 0.00 0.00 0.00 24 1006.2
20260504213429 67 246 3.5 13.9 0.00 0.00 0.00 24 1006.2
20260504213335 67 290 5.2 13.9 0.00 0.00 0.00 24 1006.2
20260504213247 67 284 7.8 13.9 0.00 0.00 0.00 24 1006.2
20260504213245 67 281 7.8 13.9 0.00 0.00 0.00 24 1006.2
20260504213216 67 269 7.8 13.9 0.00 0.00 0.00 24 1006.3
20260504212928 67 260 7.0 13.9 0.00 0.00 0.00 24 1006.4
20260504212840 67 277 5.2 13.9 0.00 0.00 0.00 24 1006.5
20260504212732 67 277 4.3 13.9 0.00 0.00 0.00 24 1006.4
20260504212624 67 352 5.2 13.9 0.00 0.00 0.00 24 1006.5
20260504212520 67 235 4.3 13.9 0.00 0.00 0.00 24 1006.5
20260504212444 67 217 4.3 13.9 0.00 0.00 0.00 24 1006.6
20260504212336 67 284 5.2 13.9 0.00 0.00 0.00 24 1006.6
20260504212239 67 276 7.0 13.9 0.00 0.00 0.00 24 1006.7
20260504212140 67 328 6.1 14.8 0.00 0.00 0.00 24 1006.5
20260504212034 67 266 4.3 14.8 0.00 0.00 0.00 24 1006.7
20260504211936 67 13 5.2 14.8 0.00 0.00 0.00 24 1006.6
20260504211839 67 266 5.2 14.8 0.00 0.00 0.00 24 1006.7
20260504211753 67 296 5.2 14.8 0.00 0.00 0.00 24 1006.7
20260504211743 67 269 4.3 15.6 0.00 0.00 0.00 24 1006.7
20260504211726 67 274 3.5 15.6 0.00 0.00 0.00 25 1006.7
20260504211444 67 295 6.1 15.6 0.00 0.00 0.00 24 1006.8
20260504211339 67 263 7.0 15.6 0.00 0.00 0.00 24 1006.7
20260504211245 67 279 5.2 15.6 0.00 0.00 0.00 24 1006.8
20260504211118 67 309 4.3 15.6 0.00 0.00 0.00 24 1006.9
20260504211031 67 265 6.1 15.6 0.00 0.00 0.00 24 1006.9
20260504210937 67 283 7.8 15.6 0.00 0.00 0.00 24 1006.9
20260504210844 67 281 9.6 15.6 0.00 0.00 0.00 24 1006.9
20260504210741 67 285 7.0 15.6 0.00 0.00 0.00 23 1006.8
20260504210640 67 302 5.2 10.4 0.00 0.00 0.00 25 1006.9
20260504210540 67 271 5.2 11.3 0.00 0.00 0.00 25 1006.9
20260504210443 67 294 3.5 12.2 0.00 0.00 0.00 25 1006.9
20260504210318 67 330 3.5 12.2 0.00 0.00 0.00 25 1006.9
20260504210314 67 313 3.5 12.2 0.00 0.00 0.00 25 1007.0
20260504210310 67 277 3.5 12.2 0.00 0.00 0.00 25 1007.0
20260504210237 67 340 5.2 12.2 0.00 0.00 0.00 25 1007.0
20260504205923 67 274 7.8 12.2 0.00 0.00 0.00 25 1007.0
20260504205840 67 273 7.8 12.2 0.00 0.00 0.00 24 1007.0
20260504205723 67 297 7.8 13.9 0.00 0.00 0.00 25 1007.1
20260504205640 67 287 8.7 13.9 0.00 0.00 0.00 24 1007.1
20260504205522 67 294 8.7 13.9 0.00 0.00 0.00 25 1007.1
20260504205428 68 286 7.8 13.9 0.00 0.00 0.00 25 1007.1
20260504205316 68 273 7.0 17.4 0.00 0.00 0.00 24 1007.0
20260504205222 68 296 5.2 17.4 0.00 0.00 0.00 24 1007.1
20260504205121 68 5 6.1 17.4 0.00 0.00 0.00 24 1007.1
20260504205027 68 260 8.7 17.4 0.00 0.00 0.00 24 1007.0
20260504204923 68 263 7.8 17.4 0.00 0.00 0.00 25 1007.1
20260504204824 68 264 7.8 17.4 0.00 0.00 0.00 25 1007.1
20260504204755 68 288 9.6 17.4 0.00 0.00 0.00 25 1007.0
20260504204741 68 269 11.3 17.4 0.00 0.00 0.00 25 1006.9
20260504204650 68 300 10.4 16.5 0.00 0.00 0.00 25 1006.8
20260504204441 68 283 7.8 13.0 0.00 0.00 0.00 25 1006.9
20260504204337 68 238 7.0 15.6 0.00 0.00 0.00 25 1007.2
20260504204242 68 273 8.7 16.5 0.00 0.00 0.00 26 1007.1
20260504204146 67 225 7.0 16.5 0.00 0.00 0.00 25 1007.1
20260504204027 67 292 6.1 16.5 0.00 0.00 0.00 26 1007.1
20260504203941 67 184 7.8 16.5 0.00 0.00 0.00 26 1007.1
20260504203827 67 282 9.6 16.5 0.00 0.00 0.00 26 1007.0
20260504203744 67 299 9.6 16.5 0.00 0.00 0.00 25 1007.2
20260504203623 67 232 9.6 16.5 0.00 0.00 0.00 25 1007.2
20260504203530 67 267 9.6 16.5 0.00 0.00 0.00 26 1007.3
20260504203433 67 234 8.7 16.5 0.00 0.00 0.00 26 1007.2
20260504203315 67 297 6.1 13.9 0.00 0.00 0.00 26 1007.2
20260504203310 67 231 6.1 13.9 0.00 0.00 0.00 26 1007.2
20260504203305 67 262 5.2 13.9 0.00 0.00 0.00 26 1007.1
20260504203231 67 265 6.1 13.9 0.00 0.00 0.00 26 1007.2
20260504202929 67 269 7.8 13.9 0.00 0.00 0.00 26 1007.1
20260504202846 67 244 7.8 13.9 0.00 0.00 0.00 26 1007.1
20260504202726 67 228 8.7 13.9 0.00 0.00 0.00 26 1007.0
20260504202617 67 290 8.7 13.9 0.00 0.00 0.00 26 1007.1
20260504202524 67 257 7.8 13.9 0.00 0.00 0.00 26 1007.0
20260504202432 67 291 6.1 13.9 0.00 0.00 0.00 26 1007.1
20260504202319 67 250 7.0 16.5 0.00 0.00 0.00 26 1007.1
20260504202219 67 280 7.8 16.5 0.00 0.00 0.00 25 1007.2
20260504202123 67 280 6.1 16.5 0.00 0.00 0.00 25 1007.2
20260504202036 67 240 6.1 16.5 0.00 0.00 0.00 26 1007.2
20260504201931 67 201 6.1 16.5 0.00 0.00 0.00 25 1007.3
20260504201816 67 238 4.3 16.5 0.00 0.00 0.00 25 1007.4
20260504201803 66 297 6.1 16.5 0.00 0.00 0.00 25 1007.4
20260504201758 66 286 9.6 16.5 0.00 0.00 0.00 25 1007.4
20260504201736 66 273 8.7 16.5 0.00 0.00 0.00 25 1007.4
20260504201421 66 252 7.0 20.9 0.00 0.00 0.00 25 1007.4
20260504201330 66 232 8.7 20.9 0.00 0.00 0.00 25 1007.4
20260504201233 66 275 10.4 20.9 0.00 0.00 0.00 25 1007.4
20260504201134 66 285 8.7 20.9 0.00 0.00 0.00 25 1007.3
20260504201024 66 288 6.1 20.9 0.00 0.00 0.00 25 1007.2
20260504200937 66 209 6.1 20.9 0.00 0.00 0.00 25 1007.2
20260504200843 66 306 8.7 20.9 0.00 0.00 0.00 25 1007.2
20260504200721 66 316 13.9 20.9 0.00 0.00 0.00 25 1007.3
20260504200641 65 272 14.8 20.9 0.00 0.00 0.00 25 1007.2
20260504200531 65 247 9.6 20.0 0.00 0.00 0.00 26 1007.1
20260504200424 65 305 7.8 17.4 0.00 0.00 0.00 27 1007.2
20260504200317 65 295 12.2 17.4 0.00 0.00 0.00 27 1007.2
20260504200310 65 259 11.3 17.4 0.00 0.00 0.00 27 1007.3
20260504200224 65 279 9.6 18.2 0.00 0.00 0.00 28 1007.2
20260504195944 65 269 8.7 18.2 0.00 0.00 0.00 27 1007.4
20260504195826 65 295 9.6 18.2 0.00 0.00 0.00 28 1007.3
20260504195721 65 242 9.6 18.2 0.00 0.00 0.00 28 1007.4
20260504195640 65 308 10.4 18.2 0.00 0.00 0.00 27 1007.4
20260504195532 65 292 11.3 18.2 0.00 0.00 0.00 28 1007.5
20260504195427 65 238 11.3 18.2 0.00 0.00 0.00 28 1007.6
20260504195333 65 242 12.2 18.2 0.00 0.00 0.00 28 1007.5
20260504195233 65 283 11.3 18.2 0.00 0.00 0.00 28 1007.6